Observation data for Weinert on 01/20/2019      Previous  Date  Next       Current Mesonet Observations  Soil Data  Daily Summary Page  Observations in Plain Language
KWE1 200600Z 10004KT M01/M06 A3036 RMK A01 T10091062  RH  067%=      5-min Rain = 0
KWE1 200601Z 10004KT M01/M06 A3036 RMK A01 T10091062  RH  067%=      5-min Rain = 0
KWE1 200602Z 10004KT M01/M06 A3036 RMK A01 T10101061  RH  068%=      5-min Rain = 0
KWE1 200603Z 10005KT M01/M06 A3036 RMK A01 T10091060  RH  068%=      5-min Rain = 0
KWE1 200604Z 09005KT M01/M06 A3036 RMK A01 T10101060  RH  069%=      5-min Rain = 0
KWE1 200605Z 09005KT M01/M06 A3036 RMK A01 T10101061  RH  068%=      5-min Rain = 0
KWE1 200606Z 09005KT M01/M06 A3036 RMK A01 T10101061  RH  068%=      5-min Rain = 0
KWE1 200607Z 09005KT M01/M06 A3036 RMK A01 T10111061  RH  069%=      5-min Rain = 0
KWE1 200608Z 09005KT M01/M06 A3036 RMK A01 T10111061  RH  069%=      5-min Rain = 0
KWE1 200609Z 08005KT M01/M06 A3036 RMK A01 T10111061  RH  069%=      5-min Rain = 0
KWE1 200610Z 08004KT M01/M06 A3037 RMK A01 T10111061  RH  068%=      5-min Rain = 0
KWE1 200611Z 09004KT M01/M06 A3037 RMK A01 T10111061  RH  069%=      5-min Rain = 0
KWE1 200612Z 09004KT M01/M06 A3037 RMK A01 T10111061  RH  068%=      5-min Rain = 0
KWE1 200613Z 10004KT M01/M06 A3038 RMK A01 T10101062  RH  068%=      5-min Rain = 0
KWE1 200614Z 11004KT M01/M06 A3038 RMK A01 T10101062  RH  068%=      5-min Rain = 0
KWE1 200615Z 11004KT M01/M06 A3037 RMK A01 T10101062  RH  068%=      5-min Rain = 0
KWE1 200616Z 12004KT M01/M06 A3037 RMK A01 T10091062  RH  067%=      5-min Rain = 0
KWE1 200617Z 12005KT M01/M06 A3037 RMK A01 T10091061  RH  067%=      5-min Rain = 0
KWE1 200618Z 12006KT M01/M06 A3037 RMK A01 T10091061  RH  068%=      5-min Rain = 0
KWE1 200619Z 11005KT M01/M06 A3036 RMK A01 T10091061  RH  068%=      5-min Rain = 0
KWE1 200620Z 10005KT M01/M06 A3036 RMK A01 T10091060  RH  068%=      5-min Rain = 0
KWE1 200621Z 10004KT M01/M06 A3037 RMK A01 T10101060  RH  069%=      5-min Rain = 0
KWE1 200622Z 10006KT M01/M06 A3037 RMK A01 T10111061  RH  069%=      5-min Rain = 0
KWE1 200623Z 10006KT M01/M06 A3037 RMK A01 T10111060  RH  069%=      5-min Rain = 0
KWE1 200624Z 09006KT M01/M06 A3037 RMK A01 T10121060  RH  070%=      5-min Rain = 0
KWE1 200625Z 09006KT M01/M06 A3037 RMK A01 T10121060  RH  070%=      5-min Rain = 0
KWE1 200626Z 10006KT M01/M06 A3036 RMK A01 T10131060  RH  070%=      5-min Rain = 0
KWE1 200627Z 10006KT M01/M06 A3036 RMK A01 T10131061  RH  070%=      5-min Rain = 0
KWE1 200628Z 09007KT M01/M06 A3036 RMK A01 T10131061  RH  070%=      5-min Rain = 0
KWE1 200629Z 10007KT M01/M06 A3036 RMK A01 T10141061  RH  070%=      5-min Rain = 0
KWE1 200630Z 09006KT M01/M06 A3036 RMK A01 T10141061  RH  070%=      5-min Rain = 0
KWE1 200631Z 10005KT M01/M06 A3036 RMK A01 T10141061  RH  070%=      5-min Rain = 0
KWE1 200632Z 09005KT M01/M06 A3036 RMK A01 T10141061  RH  070%=      5-min Rain = 0
KWE1 200633Z 09004KT M02/M06 A3037 RMK A01 T10151061  RH  070%=      5-min Rain = 0
KWE1 200634Z 09005KT M02/M06 A3037 RMK A01 T10151062  RH  070%=      5-min Rain = 0
KWE1 200635Z 10005KT M02/M06 A3037 RMK A01 T10151063  RH  070%=      5-min Rain = 0
KWE1 200636Z 09005KT M02/M06 A3037 RMK A01 T10151064  RH  069%=      5-min Rain = 0
KWE1 200637Z 09004KT M02/M07 A3037 RMK A01 T10151065  RH  069%=      5-min Rain = 0
KWE1 200638Z 10004KT M02/M07 A3037 RMK A01 T10151065  RH  069%=      5-min Rain = 0
KWE1 200639Z 10004KT M02/M07 A3037 RMK A01 T10151065  RH  069%=      5-min Rain = 0
KWE1 200640Z 10003KT M02/M07 A3037 RMK A01 T10151065  RH  069%=      5-min Rain = 0
KWE1 200641Z 10004KT M02/M07 A3037 RMK A01 T10151065  RH  069%=      5-min Rain = 0
KWE1 200642Z 10004KT M02/M07 A3037 RMK A01 T10151066  RH  068%=      5-min Rain = 0
KWE1 200643Z 10003KT M02/M07 A3037 RMK A01 T10151066  RH  068%=      5-min Rain = 0
KWE1 200644Z 11004KT M01/M07 A3036 RMK A01 T10141065  RH  068%=      5-min Rain = 0
KWE1 200645Z 11004KT M02/M07 A3036 RMK A01 T10151065  RH  069%=      5-min Rain = 0
KWE1 200646Z 11004KT M02/M06 A3036 RMK A01 T10151064  RH  069%=      5-min Rain = 0
KWE1 200647Z 10005KT M02/M06 A3036 RMK A01 T10151064  RH  069%=      5-min Rain = 0
KWE1 200648Z 09006KT M02/M06 A3036 RMK A01 T10161064  RH  070%=      5-min Rain = 0
KWE1 200649Z 09007KT M02/M06 A3036 RMK A01 T10171064  RH  070%=      5-min Rain = 0
KWE1 200650Z 09007KT M02/M06 A3036 RMK A01 T10171064  RH  070%=      5-min Rain = 0
KWE1 200651Z 08007KT M02/M06 A3037 RMK A01 T10181064  RH  071%=      5-min Rain = 0
KWE1 200652Z 08006KT M02/M06 A3036 RMK A01 T10191064  RH  071%=      5-min Rain = 0
KWE1 200653Z 08006KT M02/M06 A3036 RMK A01 T10191064  RH  071%=      5-min Rain = 0
KWE1 200654Z 09006KT M02/M07 A3036 RMK A01 T10191065  RH  071%=      5-min Rain = 0
KWE1 200655Z 09005KT M02/M07 A3036 RMK A01 T10181066  RH  070%=      5-min Rain = 0
KWE1 200656Z 08005KT M02/M07 A3036 RMK A01 T10181067  RH  069%=      5-min Rain = 0
KWE1 200657Z 07005KT M02/M07 A3036 RMK A01 T10171067  RH  069%=      5-min Rain = 0
KWE1 200658Z 08004KT M02/M07 A3036 RMK A01 T10181067  RH  069%=      5-min Rain = 0
KWE1 200659Z 07004KT M02/M07 A3036 RMK A01 T10171067  RH  069%=      5-min Rain = 0
KWE1 200700Z 08003KT M02/M07 A3036 RMK A01 T10171069  RH  068%=      5-min Rain = 0
KWE1 200701Z 07003KT M02/M07 A3037 RMK A01 T10171069  RH  068%=      5-min Rain = 0
KWE1 200702Z 07003KT M02/M07 A3037 RMK A01 T10181069  RH  068%=      5-min Rain = 0
KWE1 200703Z 07003KT M02/M07 A3037 RMK A01 T10181069  RH  068%=      5-min Rain = 0
KWE1 200704Z 08003KT M02/M07 A3037 RMK A01 T10181069  RH  068%=      5-min Rain = 0
KWE1 200705Z 08003KT M02/M07 A3037 RMK A01 T10181069  RH  068%=      5-min Rain = 0
KWE1 200706Z 08003KT M02/M07 A3037 RMK A01 T10181070  RH  067%=      5-min Rain = 0
KWE1 200707Z 08003KT M02/M07 A3037 RMK A01 T10181071  RH  067%=      5-min Rain = 0
KWE1 200708Z 08003KT M02/M07 A3037 RMK A01 T10181072  RH  067%=      5-min Rain = 0
KWE1 200709Z 07003KT M02/M07 A3037 RMK A01 T10181073  RH  066%=      5-min Rain = 0
KWE1 200710Z 08004KT M02/M07 A3037 RMK A01 T10181073  RH  066%=      5-min Rain = 0
KWE1 200711Z 07004KT M02/M07 A3037 RMK A01 T10181073  RH  066%=      5-min Rain = 0
KWE1 200712Z 07005KT M02/M07 A3037 RMK A01 T10181072  RH  066%=      5-min Rain = 0
KWE1 200713Z 07003KT M02/M07 A3037 RMK A01 T10181073  RH  066%=      5-min Rain = 0
KWE1 200714Z 07003KT M02/M07 A3037 RMK A01 T10171073  RH  065%=      5-min Rain = 0
KWE1 200715Z 07003KT M02/M07 A3037 RMK A01 T10171073  RH  066%=      5-min Rain = 0
KWE1 200716Z 08002KT M02/M07 A3037 RMK A01 T10171073  RH  065%=      5-min Rain = 0
KWE1 200717Z 08002KT M02/M07 A3037 RMK A01 T10171073  RH  066%=      5-min Rain = 0
KWE1 200718Z 09002KT M02/M07 A3037 RMK A01 T10181074  RH  065%=      5-min Rain = 0
KWE1 200719Z 10003KT M02/M08 A3036 RMK A01 T10181075  RH  065%=      5-min Rain = 0
KWE1 200720Z 12002KT M02/M08 A3036 RMK A01 T10171075  RH  065%=      5-min Rain = 0
KWE1 200721Z 13003KT M02/M07 A3036 RMK A01 T10171073  RH  066%=      5-min Rain = 0
KWE1 200722Z 14003KT M02/M07 A3036 RMK A01 T10181071  RH  067%=      5-min Rain = 0
KWE1 200723Z 15004KT M02/M07 A3035 RMK A01 T10191069  RH  069%=      5-min Rain = 0
KWE1 200724Z 13004KT M02/M07 A3035 RMK A01 T10191067  RH  070%=      5-min Rain = 0
KWE1 200725Z 13004KT M02/M07 A3035 RMK A01 T10201066  RH  071%=      5-min Rain = 0
KWE1 200726Z 13004KT M02/M07 A3035 RMK A01 T10201065  RH  072%=      5-min Rain = 0
KWE1 200727Z 13004KT M02/M06 A3035 RMK A01 T10201064  RH  072%=      5-min Rain = 0
KWE1 200728Z 13004KT M02/M06 A3035 RMK A01 T10211064  RH  072%=      5-min Rain = 0
KWE1 200729Z 14003KT M02/M06 A3035 RMK A01 T10211064  RH  072%=      5-min Rain = 0
KWE1 200730Z 14003KT M02/M06 A3035 RMK A01 T10201063  RH  072%=      5-min Rain = 0
KWE1 200731Z 16002KT M02/M06 A3036 RMK A01 T10201063  RH  072%=      5-min Rain = 0
KWE1 200732Z 15002KT M02/M06 A3036 RMK A01 T10201063  RH  073%=      5-min Rain = 0
KWE1 200733Z 14002KT M02/M06 A3036 RMK A01 T10201062  RH  073%=      5-min Rain = 0
KWE1 200734Z 13002KT M02/M06 A3036 RMK A01 T10201062  RH  073%=      5-min Rain = 0
KWE1 200735Z 14002KT M02/M06 A3036 RMK A01 T10211062  RH  073%=      5-min Rain = 0
KWE1 200736Z 13003KT M02/M06 A3036 RMK A01 T10211061  RH  074%=      5-min Rain = 0
KWE1 200737Z 14003KT M02/M06 A3035 RMK A01 T10211061  RH  074%=      5-min Rain = 0
KWE1 200738Z 14003KT M02/M06 A3036 RMK A01 T10211061  RH  074%=      5-min Rain = 0
KWE1 200739Z 14003KT M02/M06 A3036 RMK A01 T10211060  RH  075%=      5-min Rain = 0
KWE1 200740Z 15003KT M02/M06 A3036 RMK A01 T10211060  RH  075%=      5-min Rain = 0
KWE1 200741Z 15002KT M02/M06 A3036 RMK A01 T10211060  RH  075%=      5-min Rain = 0
KWE1 200742Z 15003KT M02/M06 A3036 RMK A01 T10211060  RH  075%=      5-min Rain = 0
KWE1 200743Z 15003KT M02/M06 A3036 RMK A01 T10211059  RH  075%=      5-min Rain = 0
KWE1 200744Z 14003KT M02/M06 A3036 RMK A01 T10211059  RH  075%=      5-min Rain = 0
KWE1 200745Z 14003KT M02/M06 A3036 RMK A01 T10211059  RH  075%=      5-min Rain = 0
KWE1 200746Z 14004KT M02/M06 A3036 RMK A01 T10211060  RH  075%=      5-min Rain = 0
KWE1 200747Z 13004KT M02/M06 A3037 RMK A01 T10211060  RH  074%=      5-min Rain = 0
KWE1 200748Z 13004KT M02/M06 A3037 RMK A01 T10211061  RH  074%=      5-min Rain = 0
KWE1 200749Z 13004KT M02/M06 A3037 RMK A01 T10211061  RH  074%=      5-min Rain = 0
KWE1 200750Z 14003KT M02/M06 A3037 RMK A01 T10201061  RH  074%=      5-min Rain = 0
KWE1 200751Z 14003KT M02/M06 A3037 RMK A01 T10201062  RH  073%=      5-min Rain = 0
KWE1 200752Z 15002KT M02/M06 A3037 RMK A01 T10211062  RH  073%=      5-min Rain = 0
KWE1 200753Z 15003KT M02/M06 A3036 RMK A01 T10201061  RH  073%=      5-min Rain = 0
KWE1 200754Z 14002KT M02/M06 A3036 RMK A01 T10201061  RH  073%=      5-min Rain = 0
KWE1 200755Z 13003KT M02/M06 A3036 RMK A01 T10201061  RH  074%=      5-min Rain = 0
KWE1 200756Z 13003KT M02/M06 A3036 RMK A01 T10201061  RH  074%=      5-min Rain = 0
KWE1 200757Z 14002KT M02/M06 A3036 RMK A01 T10211061  RH  074%=      5-min Rain = 0
KWE1 200758Z 15003KT M02/M06 A3036 RMK A01 T10201061  RH  074%=      5-min Rain = 0
KWE1 200759Z 15003KT M02/M06 A3036 RMK A01 T10211061  RH  074%=      5-min Rain = 0
KWE1 200800Z 16004KT M02/M06 A3036 RMK A01 T10211061  RH  074%=      5-min Rain = 0
KWE1 200801Z 16004KT M02/M06 A3036 RMK A01 T10211061  RH  074%=      5-min Rain = 0
KWE1 200802Z 16004KT M02/M06 A3037 RMK A01 T10211062  RH  073%=      5-min Rain = 0
KWE1 200803Z 17003KT M02/M06 A3037 RMK A01 T10211063  RH  073%=      5-min Rain = 0
KWE1 200804Z 18003KT M02/M06 A3037 RMK A01 T10211062  RH  073%=      5-min Rain = 0
KWE1 200805Z 19002KT M02/M06 A3037 RMK A01 T10201061  RH  073%=      5-min Rain = 0
KWE1 200806Z 19003KT M02/M06 A3037 RMK A01 T10201061  RH  074%=      5-min Rain = 0
KWE1 200807Z 19003KT M02/M06 A3037 RMK A01 T10211061  RH  074%=      5-min Rain = 0
KWE1 200808Z 19002KT M02/M06 A3037 RMK A01 T10201060  RH  074%=      5-min Rain = 0
KWE1 200809Z 18001KT M02/M06 A3037 RMK A01 T10201061  RH  074%=      5-min Rain = 0
KWE1 200810Z 17002KT M02/M06 A3037 RMK A01 T10211061  RH  074%=      5-min Rain = 0
KWE1 200811Z 16002KT M02/M06 A3037 RMK A01 T10201061  RH  074%=      5-min Rain = 0
KWE1 200812Z 16002KT M02/M06 A3037 RMK A01 T10211062  RH  073%=      5-min Rain = 0
KWE1 200813Z 17002KT M02/M06 A3037 RMK A01 T10211062  RH  073%=      5-min Rain = 0
KWE1 200814Z 17002KT M02/M06 A3037 RMK A01 T10211063  RH  073%=      5-min Rain = 0
KWE1 200815Z 17002KT M02/M06 A3037 RMK A01 T10211063  RH  073%=      5-min Rain = 0
KWE1 200816Z 17001KT M02/M06 A3037 RMK A01 T10201063  RH  073%=      5-min Rain = 0
KWE1 200817Z 17001KT M02/M06 A3038 RMK A01 T10211063  RH  073%=      5-min Rain = 0
KWE1 200818Z 17002KT M02/M06 A3038 RMK A01 T10201063  RH  073%=      5-min Rain = 0
KWE1 200819Z 17002KT M02/M06 A3038 RMK A01 T10201062  RH  073%=      5-min Rain = 0
KWE1 200820Z 19002KT M02/M06 A3038 RMK A01 T10211062  RH  073%=      5-min Rain = 0
KWE1 200821Z 19001KT M02/M06 A3038 RMK A01 T10211062  RH  074%=      5-min Rain = 0
KWE1 200822Z 18001KT M02/M06 A3038 RMK A01 T10211061  RH  074%=      5-min Rain = 0
KWE1 200823Z 16001KT M02/M06 A3038 RMK A01 T10211061  RH  074%=      5-min Rain = 0
KWE1 200824Z 17001KT M02/M06 A3037 RMK A01 T10221061  RH  074%=      5-min Rain = 0
KWE1 200825Z 18001KT M02/M06 A3037 RMK A01 T10231061  RH  075%=      5-min Rain = 0
KWE1 200826Z 19001KT M02/M06 A3038 RMK A01 T10231061  RH  075%=      5-min Rain = 0
KWE1 200827Z 20002KT M02/M06 A3038 RMK A01 T10231060  RH  076%=      5-min Rain = 0
KWE1 200828Z 21002KT M02/M06 A3038 RMK A01 T10231060  RH  076%=      5-min Rain = 0
KWE1 200829Z 21002KT M02/M06 A3038 RMK A01 T10241059  RH  077%=      5-min Rain = 0
KWE1 200830Z 22003KT M02/M06 A3038 RMK A01 T10241058  RH  077%=      5-min Rain = 0
KWE1 200831Z 22003KT M02/M06 A3038 RMK A01 T10241057  RH  078%=      5-min Rain = 0
KWE1 200832Z 23003KT M02/M06 A3038 RMK A01 T10241058  RH  077%=      5-min Rain = 0
KWE1 200833Z 23004KT M02/M06 A3038 RMK A01 T10241060  RH  077%=      5-min Rain = 0
KWE1 200834Z 23004KT M02/M06 A3038 RMK A01 T10241060  RH  076%=      5-min Rain = 0
KWE1 200835Z 23003KT M02/M06 A3038 RMK A01 T10241059  RH  077%=      5-min Rain = 0
KWE1 200836Z 24002KT M02/M06 A3038 RMK A01 T10241058  RH  077%=      5-min Rain = 0
KWE1 200837Z 25001KT M03/M06 A3038 RMK A01 T10251058  RH  078%=      5-min Rain = 0
KWE1 200838Z 24002KT M03/M06 A3038 RMK A01 T10251058  RH  078%=      5-min Rain = 0
KWE1 200839Z 24002KT M03/M06 A3037 RMK A01 T10261058  RH  078%=      5-min Rain = 0
KWE1 200840Z 23002KT M03/M06 A3037 RMK A01 T10261058  RH  079%=      5-min Rain = 0
KWE1 200841Z 23002KT M03/M06 A3037 RMK A01 T10261057  RH  079%=      5-min Rain = 0
KWE1 200842Z 23003KT M03/M06 A3037 RMK A01 T10261057  RH  079%=      5-min Rain = 0
KWE1 200843Z 23003KT M03/M06 A3038 RMK A01 T10261056  RH  080%=      5-min Rain = 0
KWE1 200844Z 23003KT M03/M06 A3038 RMK A01 T10261056  RH  080%=      5-min Rain = 0
KWE1 200845Z 23004KT M03/M06 A3037 RMK A01 T10261056  RH  079%=      5-min Rain = 0
KWE1 200846Z 23004KT M03/M06 A3037 RMK A01 T10251056  RH  079%=      5-min Rain = 0
KWE1 200847Z 23004KT M03/M06 A3037 RMK A01 T10261057  RH  079%=      5-min Rain = 0
KWE1 200848Z 22003KT M03/M06 A3037 RMK A01 T10261057  RH  079%=      5-min Rain = 0
KWE1 200849Z 22003KT M03/M06 A3037 RMK A01 T10261057  RH  079%=      5-min Rain = 0
KWE1 200850Z 21003KT M03/M06 A3037 RMK A01 T10261056  RH  080%=      5-min Rain = 0
KWE1 200851Z 22003KT M03/M06 A3037 RMK A01 T10261056  RH  080%=      5-min Rain = 0
KWE1 200852Z 22004KT M03/M06 A3037 RMK A01 T10261056  RH  080%=      5-min Rain = 0
KWE1 200853Z 22004KT M03/M06 A3037 RMK A01 T10261055  RH  080%=      5-min Rain = 0
KWE1 200854Z 22004KT M03/M06 A3037 RMK A01 T10261056  RH  080%=      5-min Rain = 0
KWE1 200855Z 22004KT M03/M06 A3037 RMK A01 T10261055  RH  080%=      5-min Rain = 0
KWE1 200856Z 21004KT M03/M06 A3037 RMK A01 T10261055  RH  080%=      5-min Rain = 0
KWE1 200857Z 21004KT M03/M06 A3037 RMK A01 T10261055  RH  081%=      5-min Rain = 0
KWE1 200858Z 20003KT M03/M05 A3037 RMK A01 T10261054  RH  081%=      5-min Rain = 0
KWE1 200859Z 21004KT M03/M05 A3037 RMK A01 T10261053  RH  082%=      5-min Rain = 0
KWE1 200900Z 21004KT M03/M05 A3037 RMK A01 T10261052  RH  082%=      5-min Rain = 0
KWE1 200901Z 21004KT M03/M05 A3037 RMK A01 T10261052  RH  082%=      5-min Rain = 0
KWE1 200902Z 21003KT M03/M05 A3037 RMK A01 T10261051  RH  083%=      5-min Rain = 0
KWE1 200903Z 21003KT M03/M05 A3037 RMK A01 T10261051  RH  083%=      5-min Rain = 0
KWE1 200904Z 21002KT M03/M05 A3037 RMK A01 T10261051  RH  083%=      5-min Rain = 0
KWE1 200905Z 20002KT M03/M05 A3037 RMK A01 T10261051  RH  083%=      5-min Rain = 0
KWE1 200906Z 20002KT M03/M05 A3037 RMK A01 T10261051  RH  083%=      5-min Rain = 0
KWE1 200907Z 20003KT M03/M05 A3036 RMK A01 T10261051  RH  083%=      5-min Rain = 0
KWE1 200908Z 20003KT M03/M05 A3037 RMK A01 T10261052  RH  083%=      5-min Rain = 0
KWE1 200909Z 19003KT M03/M05 A3037 RMK A01 T10261052  RH  082%=      5-min Rain = 0
KWE1 200910Z 20003KT M03/M05 A3037 RMK A01 T10261053  RH  082%=      5-min Rain = 0
KWE1 200911Z 21003KT M03/M05 A3037 RMK A01 T10261054  RH  081%=      5-min Rain = 0
KWE1 200912Z 21003KT M03/M05 A3037 RMK A01 T10261054  RH  081%=      5-min Rain = 0
KWE1 200913Z 21003KT M03/M05 A3037 RMK A01 T10261054  RH  081%=      5-min Rain = 0
KWE1 200914Z 21003KT M03/M06 A3037 RMK A01 T10271055  RH  081%=      5-min Rain = 0
KWE1 200915Z 21003KT M03/M06 A3037 RMK A01 T10271056  RH  080%=      5-min Rain = 0
KWE1 200916Z 21003KT M03/M06 A3037 RMK A01 T10271056  RH  080%=      5-min Rain = 0
KWE1 200917Z 21002KT M03/M06 A3037 RMK A01 T10271056  RH  080%=      5-min Rain = 0
KWE1 200918Z 22003KT M03/M06 A3037 RMK A01 T10271057  RH  080%=      5-min Rain = 0
KWE1 200919Z 22003KT M03/M06 A3037 RMK A01 T10271057  RH  080%=      5-min Rain = 0
KWE1 200920Z 23002KT M03/M06 A3037 RMK A01 T10271058  RH  079%=      5-min Rain = 0
KWE1 200921Z 22002KT M03/M06 A3037 RMK A01 T10271058  RH  079%=      5-min Rain = 0
KWE1 200922Z 22002KT M03/M06 A3037 RMK A01 T10271058  RH  080%=      5-min Rain = 0
KWE1 200923Z 21001KT M03/M06 A3037 RMK A01 T10271056  RH  080%=      5-min Rain = 0
KWE1 200924Z 21002KT M03/M06 A3037 RMK A01 T10261055  RH  081%=      5-min Rain = 0
KWE1 200925Z 21002KT M03/M06 A3037 RMK A01 T10261055  RH  081%=      5-min Rain = 0
KWE1 200926Z 22002KT M03/M05 A3037 RMK A01 T10261054  RH  081%=      5-min Rain = 0
KWE1 200927Z 21002KT M03/M05 A3037 RMK A01 T10271054  RH  081%=      5-min Rain = 0
KWE1 200928Z 21002KT M03/M05 A3037 RMK A01 T10261054  RH  082%=      5-min Rain = 0
KWE1 200929Z 20002KT M03/M05 A3037 RMK A01 T10261053  RH  082%=      5-min Rain = 0
KWE1 200930Z 20001KT M03/M05 A3037 RMK A01 T10261053  RH  082%=      5-min Rain = 0
KWE1 200931Z 20001KT M03/M05 A3037 RMK A01 T10261053  RH  082%=      5-min Rain = 0
KWE1 200932Z 22001KT M03/M05 A3038 RMK A01 T10261053  RH  082%=      5-min Rain = 0
KWE1 200933Z 24001KT M03/M05 A3038 RMK A01 T10261053  RH  082%=      5-min Rain = 0
KWE1 200934Z 25002KT M03/M05 A3038 RMK A01 T10261053  RH  082%=      5-min Rain = 0
KWE1 200935Z 26001KT M03/M05 A3038 RMK A01 T10251053  RH  082%=      5-min Rain = 0
KWE1 200936Z 26001KT M03/M05 A3038 RMK A01 T10251053  RH  082%=      5-min Rain = 0
KWE1 200937Z 26001KT M03/M05 A3038 RMK A01 T10261053  RH  082%=      5-min Rain = 0
KWE1 200938Z 26002KT M03/M05 A3037 RMK A01 T10261053  RH  082%=      5-min Rain = 0
KWE1 200939Z 25001KT M03/M05 A3037 RMK A01 T10271054  RH  081%=      5-min Rain = 0
KWE1 200940Z 25000KT M03/M06 A3037 RMK A01 T10271055  RH  081%=      5-min Rain = 0
KWE1 200941Z 25000KT M03/M06 A3037 RMK A01 T10281056  RH  081%=      5-min Rain = 0
KWE1 200942Z 25001KT M03/M06 A3037 RMK A01 T10281057  RH  081%=      5-min Rain = 0
KWE1 200943Z 24001KT M03/M06 A3037 RMK A01 T10281056  RH  081%=      5-min Rain = 0
KWE1 200944Z 24001KT M03/M06 A3037 RMK A01 T10281056  RH  081%=      5-min Rain = 0
KWE1 200945Z 23001KT M03/M06 A3037 RMK A01 T10281055  RH  081%=      5-min Rain = 0
KWE1 200946Z 23001KT M03/M06 A3037 RMK A01 T10281055  RH  081%=      5-min Rain = 0
KWE1 200947Z 23001KT M03/M06 A3037 RMK A01 T10281055  RH  081%=      5-min Rain = 0
KWE1 200948Z 23002KT M03/M06 A3037 RMK A01 T10281055  RH  081%=      5-min Rain = 0
KWE1 200949Z 22002KT M03/M06 A3037 RMK A01 T10281055  RH  082%=      5-min Rain = 0
KWE1 200950Z 21002KT M03/M05 A3037 RMK A01 T10281054  RH  082%=      5-min Rain = 0
KWE1 200951Z 21002KT M03/M05 A3036 RMK A01 T10271053  RH  083%=      5-min Rain = 0
KWE1 200952Z 21002KT M03/M05 A3036 RMK A01 T10271051  RH  083%=      5-min Rain = 0
KWE1 200953Z 22002KT M03/M05 A3037 RMK A01 T10281052  RH  084%=      5-min Rain = 0
KWE1 200954Z 22003KT M03/M05 A3037 RMK A01 T10291052  RH  084%=      5-min Rain = 0
KWE1 200955Z 22003KT M03/M05 A3037 RMK A01 T10301051  RH  085%=      5-min Rain = 0
KWE1 200956Z 21002KT M03/M05 A3037 RMK A01 T10301050  RH  086%=      5-min Rain = 0
KWE1 200957Z 21002KT M03/M05 A3037 RMK A01 T10291050  RH  086%=      5-min Rain = 0
KWE1 200958Z 20002KT M03/M05 A3037 RMK A01 T10291050  RH  086%=      5-min Rain = 0
KWE1 200959Z 19002KT M03/M05 A3037 RMK A01 T10291050  RH  086%=      5-min Rain = 0
KWE1 201000Z 18002KT M03/M05 A3037 RMK A01 T10291050  RH  086%=      5-min Rain = 0
KWE1 201001Z 18002KT M03/M05 A3037 RMK A01 T10301051  RH  085%=      5-min Rain = 0
KWE1 201002Z 18002KT M03/M05 A3037 RMK A01 T10301051  RH  085%=      5-min Rain = 0
KWE1 201003Z 18002KT M03/M05 A3037 RMK A01 T10311052  RH  086%=      5-min Rain = 0
KWE1 201004Z 18002KT M03/M05 A3037 RMK A01 T10311051  RH  086%=      5-min Rain = 0
KWE1 201005Z 18002KT M03/M05 A3037 RMK A01 T10311051  RH  086%=      5-min Rain = 0
KWE1 201006Z 19002KT M03/M05 A3037 RMK A01 T10311050  RH  087%=      5-min Rain = 0
KWE1 201007Z 19002KT M03/M05 A3037 RMK A01 T10311050  RH  087%=      5-min Rain = 0
KWE1 201008Z 19002KT M03/M05 A3037 RMK A01 T10311050  RH  087%=      5-min Rain = 0
KWE1 201009Z 19002KT M03/M05 A3037 RMK A01 T10311050  RH  087%=      5-min Rain = 0
KWE1 201010Z 19002KT M03/M05 A3036 RMK A01 T10301048  RH  087%=      5-min Rain = 0
KWE1 201011Z 19002KT M03/M05 A3036 RMK A01 T10291047  RH  088%=      5-min Rain = 0
KWE1 201012Z 19002KT M03/M05 A3036 RMK A01 T10291047  RH  087%=      5-min Rain = 0
KWE1 201013Z 20003KT M03/M05 A3036 RMK A01 T10291047  RH  087%=      5-min Rain = 0
KWE1 201014Z 20003KT M03/M05 A3036 RMK A01 T10291048  RH  087%=      5-min Rain = 0
KWE1 201015Z 19003KT M03/M05 A3036 RMK A01 T10301049  RH  086%=      5-min Rain = 0
KWE1 201016Z 19003KT M03/M05 A3036 RMK A01 T10301050  RH  086%=      5-min Rain = 0
KWE1 201017Z 19003KT M03/M05 A3036 RMK A01 T10311050  RH  086%=      5-min Rain = 0
KWE1 201018Z 19003KT M03/M05 A3036 RMK A01 T10311050  RH  086%=      5-min Rain = 0
KWE1 201019Z 19003KT M03/M05 A3036 RMK A01 T10311050  RH  086%=      5-min Rain = 0
KWE1 201020Z 19003KT M03/M05 A3036 RMK A01 T10301050  RH  086%=      5-min Rain = 0
KWE1 201021Z 19003KT M03/M05 A3036 RMK A01 T10311051  RH  086%=      5-min Rain = 0
KWE1 201022Z 19003KT M03/M05 A3036 RMK A01 T10311051  RH  086%=      5-min Rain = 0
KWE1 201023Z 19003KT M03/M05 A3036 RMK A01 T10311051  RH  086%=      5-min Rain = 0
KWE1 201024Z 19002KT M03/M05 A3036 RMK A01 T10301051  RH  086%=      5-min Rain = 0
KWE1 201025Z 19002KT M03/M05 A3036 RMK A01 T10301051  RH  085%=      5-min Rain = 0
KWE1 201026Z 18002KT M03/M05 A3036 RMK A01 T10301051  RH  085%=      5-min Rain = 0
KWE1 201027Z 18002KT M03/M05 A3036 RMK A01 T10311052  RH  085%=      5-min Rain = 0
KWE1 201028Z 18002KT M03/M05 A3036 RMK A01 T10311052  RH  085%=      5-min Rain = 0
KWE1 201029Z 19003KT M03/M05 A3036 RMK A01 T10311052  RH  086%=      5-min Rain = 0
KWE1 201030Z 19003KT M03/M05 A3036 RMK A01 T10321052  RH  086%=      5-min Rain = 0
KWE1 201031Z 19003KT M03/M05 A3036 RMK A01 T10321052  RH  086%=      5-min Rain = 0
KWE1 201032Z 19003KT M03/M05 A3036 RMK A01 T10311052  RH  086%=      5-min Rain = 0
KWE1 201033Z 18003KT M03/M05 A3035 RMK A01 T10311052  RH  086%=      5-min Rain = 0
KWE1 201034Z 17003KT M03/M05 A3035 RMK A01 T10321052  RH  086%=      5-min Rain = 0
KWE1 201035Z 17003KT M03/M05 A3035 RMK A01 T10321053  RH  086%=      5-min Rain = 0
KWE1 201036Z 18003KT M03/M05 A3035 RMK A01 T10321053  RH  086%=      5-min Rain = 0
KWE1 201037Z 18003KT M03/M05 A3035 RMK A01 T10331053  RH  086%=      5-min Rain = 0
KWE1 201038Z 18004KT M03/M05 A3035 RMK A01 T10331052  RH  087%=      5-min Rain = 0
KWE1 201039Z 18004KT M03/M05 A3035 RMK A01 T10331052  RH  087%=      5-min Rain = 0
KWE1 201040Z 18004KT M03/M05 A3035 RMK A01 T10331052  RH  087%=      5-min Rain = 0
KWE1 201041Z 19004KT M03/M05 A3035 RMK A01 T10331051  RH  087%=      5-min Rain = 0
KWE1 201042Z 19004KT M03/M05 A3035 RMK A01 T10331051  RH  087%=      5-min Rain = 0
KWE1 201043Z 18003KT M03/M05 A3035 RMK A01 T10331051  RH  087%=      5-min Rain = 0
KWE1 201044Z 19003KT M03/M05 A3035 RMK A01 T10331051  RH  087%=      5-min Rain = 0
KWE1 201045Z 19003KT M03/M05 A3035 RMK A01 T10331051  RH  087%=      5-min Rain = 0
KWE1 201046Z 19003KT M03/M05 A3035 RMK A01 T10321050  RH  087%=      5-min Rain = 0
KWE1 201047Z 19003KT M03/M05 A3035 RMK A01 T10321050  RH  087%=      5-min Rain = 0
KWE1 201048Z 19003KT M03/M05 A3035 RMK A01 T10311050  RH  087%=      5-min Rain = 0
KWE1 201049Z 19004KT M03/M05 A3035 RMK A01 T10311050  RH  087%=      5-min Rain = 0
KWE1 201050Z 19004KT M03/M05 A3035 RMK A01 T10311049  RH  087%=      5-min Rain = 0
KWE1 201051Z 19003KT M03/M05 A3035 RMK A01 T10301050  RH  086%=      5-min Rain = 0
KWE1 201052Z 19004KT M03/M05 A3035 RMK A01 T10301051  RH  086%=      5-min Rain = 0
KWE1 201053Z 19004KT M03/M05 A3035 RMK A01 T10301052  RH  085%=      5-min Rain = 0
KWE1 201054Z 19004KT M03/M05 A3035 RMK A01 T10301052  RH  085%=      5-min Rain = 0
KWE1 201055Z 19004KT M03/M05 A3035 RMK A01 T10301053  RH  084%=      5-min Rain = 0
KWE1 201056Z 19005KT M03/M05 A3035 RMK A01 T10301054  RH  084%=      5-min Rain = 0
KWE1 201057Z 19004KT M03/M05 A3035 RMK A01 T10291054  RH  083%=      5-min Rain = 0
KWE1 201058Z 19004KT M03/M05 A3035 RMK A01 T10291054  RH  083%=      5-min Rain = 0
KWE1 201059Z 20004KT M03/M06 A3035 RMK A01 T10291055  RH  082%=      5-min Rain = 0
KWE1 201100Z 20004KT M03/M06 A3035 RMK A01 T10281055  RH  082%=      5-min Rain = 0
KWE1 201101Z 20004KT M03/M06 A3035 RMK A01 T10271055  RH  081%=      5-min Rain = 0
KWE1 201102Z 21004KT M03/M06 A3036 RMK A01 T10271055  RH  081%=      5-min Rain = 0
KWE1 201103Z 21005KT M03/M06 A3036 RMK A01 T10271056  RH  080%=      5-min Rain = 0
KWE1 201104Z 21005KT M03/M06 A3036 RMK A01 T10281058  RH  080%=      5-min Rain = 0
KWE1 201105Z 22005KT M03/M06 A3036 RMK A01 T10291061  RH  079%=      5-min Rain = 0
KWE1 201106Z 22004KT M03/M06 A3036 RMK A01 T10291061  RH  079%=      5-min Rain = 0
KWE1 201107Z 22004KT M03/M06 A3036 RMK A01 T10301061  RH  079%=      5-min Rain = 0
KWE1 201108Z 22004KT M03/M06 A3036 RMK A01 T10291060  RH  080%=      5-min Rain = 0
KWE1 201109Z 22004KT M03/M06 A3036 RMK A01 T10291058  RH  080%=      5-min Rain = 0
KWE1 201110Z 22004KT M03/M06 A3036 RMK A01 T10291058  RH  080%=      5-min Rain = 0
KWE1 201111Z 22004KT M03/M06 A3036 RMK A01 T10291059  RH  080%=      5-min Rain = 0
KWE1 201112Z 21003KT M03/M06 A3035 RMK A01 T10291059  RH  080%=      5-min Rain = 0
KWE1 201113Z 20003KT M03/M06 A3035 RMK A01 T10291060  RH  079%=      5-min Rain = 0
KWE1 201114Z 20003KT M03/M06 A3035 RMK A01 T10291059  RH  080%=      5-min Rain = 0
KWE1 201115Z 21003KT M03/M06 A3035 RMK A01 T10281059  RH  080%=      5-min Rain = 0
KWE1 201116Z 21004KT M03/M06 A3035 RMK A01 T10281059  RH  080%=      5-min Rain = 0
KWE1 201117Z 20003KT M03/M06 A3035 RMK A01 T10281059  RH  079%=      5-min Rain = 0
KWE1 201118Z 20003KT M03/M06 A3035 RMK A01 T10281060  RH  079%=      5-min Rain = 0
KWE1 201119Z 20004KT M03/M06 A3035 RMK A01 T10281060  RH  079%=      5-min Rain = 0
KWE1 201120Z 21004KT M03/M06 A3035 RMK A01 T10281060  RH  079%=      5-min Rain = 0
KWE1 201121Z 20004KT M03/M06 A3035 RMK A01 T10281060  RH  079%=      5-min Rain = 0
KWE1 201122Z 20003KT M03/M06 A3035 RMK A01 T10281060  RH  079%=      5-min Rain = 0
KWE1 201123Z 19003KT M03/M06 A3035 RMK A01 T10281060  RH  079%=      5-min Rain = 0
KWE1 201124Z 19003KT M03/M06 A3034 RMK A01 T10281060  RH  079%=      5-min Rain = 0
KWE1 201125Z 19003KT M03/M06 A3034 RMK A01 T10291060  RH  079%=      5-min Rain = 0
KWE1 201126Z 19003KT M03/M06 A3034 RMK A01 T10291059  RH  080%=      5-min Rain = 0
KWE1 201127Z 19003KT M03/M06 A3034 RMK A01 T10291058  RH  080%=      5-min Rain = 0
KWE1 201128Z 19004KT M03/M06 A3034 RMK A01 T10301059  RH  080%=      5-min Rain = 0
KWE1 201129Z 20004KT M03/M06 A3034 RMK A01 T10291058  RH  081%=      5-min Rain = 0
KWE1 201130Z 20004KT M03/M06 A3034 RMK A01 T10301057  RH  081%=      5-min Rain = 0
KWE1 201131Z 20004KT M03/M06 A3034 RMK A01 T10291057  RH  081%=      5-min Rain = 0
KWE1 201132Z 20004KT M03/M06 A3034 RMK A01 T10301057  RH  081%=      5-min Rain = 0
KWE1 201133Z 20004KT M03/M06 A3034 RMK A01 T10301058  RH  081%=      5-min Rain = 0
KWE1 201134Z 21004KT M03/M06 A3034 RMK A01 T10291058  RH  081%=      5-min Rain = 0
KWE1 201135Z 20004KT M03/M06 A3034 RMK A01 T10291058  RH  081%=      5-min Rain = 0
KWE1 201136Z 21004KT M03/M06 A3034 RMK A01 T10281057  RH  080%=      5-min Rain = 0
KWE1 201137Z 21004KT M03/M06 A3034 RMK A01 T10291059  RH  080%=      5-min Rain = 0
KWE1 201138Z 20004KT M03/M06 A3034 RMK A01 T10291059  RH  079%=      5-min Rain = 0
KWE1 201139Z 20003KT M03/M06 A3034 RMK A01 T10291060  RH  079%=      5-min Rain = 0
KWE1 201140Z 20003KT M03/M06 A3034 RMK A01 T10291060  RH  079%=      5-min Rain = 0
KWE1 201141Z 20003KT M03/M06 A3035 RMK A01 T10291059  RH  080%=      5-min Rain = 0
KWE1 201142Z 19003KT M03/M06 A3035 RMK A01 T10291059  RH  080%=      5-min Rain = 0
KWE1 201143Z 20003KT M03/M06 A3035 RMK A01 T10291059  RH  080%=      5-min Rain = 0
KWE1 201144Z 20004KT M03/M06 A3035 RMK A01 T10281058  RH  080%=      5-min Rain = 0
KWE1 201145Z 21004KT M03/M06 A3035 RMK A01 T10281058  RH  080%=      5-min Rain = 0
KWE1 201146Z 21004KT M03/M06 A3035 RMK A01 T10281059  RH  079%=      5-min Rain = 0
KWE1 201147Z 20003KT M03/M06 A3035 RMK A01 T10281059  RH  079%=      5-min Rain = 0
KWE1 201148Z 20003KT M03/M06 A3035 RMK A01 T10281060  RH  078%=      5-min Rain = 0
KWE1 201149Z 20003KT M03/M06 A3035 RMK A01 T10281060  RH  078%=      5-min Rain = 0
KWE1 201150Z 20002KT M03/M06 A3035 RMK A01 T10281061  RH  078%=      5-min Rain = 0
KWE1 201151Z 21003KT M03/M06 A3035 RMK A01 T10281061  RH  078%=      5-min Rain = 0
KWE1 201152Z 21004KT M03/M06 A3035 RMK A01 T10281062  RH  078%=      5-min Rain = 0
KWE1 201153Z 21004KT M03/M06 A3035 RMK A01 T10281063  RH  077%=      5-min Rain = 0
KWE1 201154Z 20004KT M03/M06 A3035 RMK A01 T10281064  RH  076%=      5-min Rain = 0
KWE1 201155Z 19003KT M03/M06 A3034 RMK A01 T10281064  RH  076%=      5-min Rain = 0
KWE1 201156Z 19003KT M03/M06 A3034 RMK A01 T10281064  RH  076%=      5-min Rain = 0
KWE1 201157Z 19003KT M03/M06 A3034 RMK A01 T10281064  RH  076%=      5-min Rain = 0
KWE1 201158Z 19003KT M03/M06 A3034 RMK A01 T10281063  RH  077%=      5-min Rain = 0
KWE1 201159Z 18003KT M03/M06 A3034 RMK A01 T10281063  RH  077%=      5-min Rain = 0
KWE1 201200Z 19003KT M03/M06 A3034 RMK A01 T10281062  RH  077%=      5-min Rain = 0
KWE1 201201Z 19003KT M03/M06 A3034 RMK A01 T10281061  RH  078%=      5-min Rain = 0
KWE1 201202Z 20003KT M03/M06 A3034 RMK A01 T10281060  RH  078%=      5-min Rain = 0
KWE1 201203Z 20003KT M03/M06 A3034 RMK A01 T10281060  RH  079%=      5-min Rain = 0
KWE1 201204Z 20004KT M03/M06 A3034 RMK A01 T10281059  RH  079%=      5-min Rain = 0
KWE1 201205Z 20003KT M03/M06 A3034 RMK A01 T10281059  RH  079%=      5-min Rain = 0
KWE1 201206Z 20003KT M03/M06 A3034 RMK A01 T10281059  RH  079%=      5-min Rain = 0
KWE1 201207Z 20003KT M03/M06 A3034 RMK A01 T10281059  RH  079%=      5-min Rain = 0
KWE1 201208Z 19004KT M03/M06 A3034 RMK A01 T10281059  RH  079%=      5-min Rain = 0
KWE1 201209Z 19004KT M03/M06 A3034 RMK A01 T10281060  RH  079%=      5-min Rain = 0
KWE1 201210Z 19004KT M03/M06 A3034 RMK A01 T10281059  RH  079%=      5-min Rain = 0
KWE1 201211Z 19004KT M03/M06 A3034 RMK A01 T10281059  RH  079%=      5-min Rain = 0
KWE1 201212Z 20004KT M03/M06 A3034 RMK A01 T10281058  RH  080%=      5-min Rain = 0
KWE1 201213Z 19004KT M03/M06 A3034 RMK A01 T10281058  RH  080%=      5-min Rain = 0
KWE1 201214Z 19005KT M03/M06 A3034 RMK A01 T10281057  RH  080%=      5-min Rain = 0
KWE1 201215Z 19004KT M03/M06 A3034 RMK A01 T10281057  RH  081%=      5-min Rain = 0
KWE1 201216Z 19004KT M03/M06 A3034 RMK A01 T10291057  RH  081%=      5-min Rain = 0
KWE1 201217Z 19003KT M03/M06 A3034 RMK A01 T10291057  RH  081%=      5-min Rain = 0
KWE1 201218Z 19004KT M03/M06 A3034 RMK A01 T10291057  RH  081%=      5-min Rain = 0
KWE1 201219Z 19004KT M03/M06 A3034 RMK A01 T10291057  RH  081%=      5-min Rain = 0
KWE1 201220Z 19004KT M03/M06 A3034 RMK A01 T10291057  RH  081%=      5-min Rain = 0
KWE1 201221Z 19004KT M03/M06 A3034 RMK A01 T10281056  RH  081%=      5-min Rain = 0
KWE1 201222Z 19004KT M03/M06 A3034 RMK A01 T10281056  RH  081%=      5-min Rain = 0
KWE1 201223Z 18004KT M03/M06 A3034 RMK A01 T10271057  RH  080%=      5-min Rain = 0
KWE1 201224Z 18004KT M03/M06 A3034 RMK A01 T10271057  RH  080%=      5-min Rain = 0
KWE1 201225Z 18004KT M03/M06 A3034 RMK A01 T10271057  RH  080%=      5-min Rain = 0
KWE1 201226Z 18004KT M03/M06 A3034 RMK A01 T10271057  RH  080%=      5-min Rain = 0
KWE1 201227Z 18004KT M03/M06 A3034 RMK A01 T10271057  RH  080%=      5-min Rain = 0
KWE1 201228Z 19004KT M03/M06 A3034 RMK A01 T10271057  RH  080%=      5-min Rain = 0
KWE1 201229Z 18003KT M03/M06 A3034 RMK A01 T10271056  RH  080%=      5-min Rain = 0
KWE1 201230Z 19004KT M03/M06 A3034 RMK A01 T10271056  RH  080%=      5-min Rain = 0
KWE1 201231Z 19004KT M03/M06 A3033 RMK A01 T10271056  RH  080%=      5-min Rain = 0
KWE1 201232Z 18004KT M03/M06 A3033 RMK A01 T10261055  RH  080%=      5-min Rain = 0
KWE1 201233Z 18004KT M03/M06 A3033 RMK A01 T10261056  RH  080%=      5-min Rain = 0
KWE1 201234Z 17004KT M03/M06 A3033 RMK A01 T10261056  RH  080%=      5-min Rain = 0
KWE1 201235Z 18004KT M03/M06 A3033 RMK A01 T10261057  RH  079%=      5-min Rain = 0
KWE1 201236Z 17004KT M03/M06 A3033 RMK A01 T10261057  RH  079%=      5-min Rain = 0
KWE1 201237Z 17003KT M03/M06 A3033 RMK A01 T10261057  RH  079%=      5-min Rain = 0
KWE1 201238Z 17003KT M03/M06 A3033 RMK A01 T10261058  RH  079%=      5-min Rain = 0
KWE1 201239Z 17004KT M03/M06 A3033 RMK A01 T10261058  RH  079%=      5-min Rain = 0
KWE1 201240Z 18004KT M03/M06 A3033 RMK A01 T10261058  RH  079%=      5-min Rain = 0
KWE1 201241Z 18004KT M03/M06 A3033 RMK A01 T10261058  RH  079%=      5-min Rain = 0
KWE1 201242Z 18004KT M03/M06 A3033 RMK A01 T10251057  RH  078%=      5-min Rain = 0
KWE1 201243Z 18004KT M03/M06 A3033 RMK A01 T10251057  RH  078%=      5-min Rain = 0
KWE1 201244Z 18004KT M03/M06 A3033 RMK A01 T10251057  RH  078%=      5-min Rain = 0
KWE1 201245Z 18003KT M02/M06 A3033 RMK A01 T10241057  RH  079%=      5-min Rain = 0
KWE1 201246Z 17003KT M03/M06 A3033 RMK A01 T10251057  RH  079%=      5-min Rain = 0
KWE1 201247Z 17003KT M03/M06 A3033 RMK A01 T10251057  RH  079%=      5-min Rain = 0
KWE1 201248Z 17003KT M03/M06 A3033 RMK A01 T10251056  RH  079%=      5-min Rain = 0
KWE1 201249Z 17003KT M03/M06 A3033 RMK A01 T10251056  RH  079%=      5-min Rain = 0
KWE1 201250Z 17002KT M03/M06 A3033 RMK A01 T10251056  RH  079%=      5-min Rain = 0
KWE1 201251Z 18003KT M03/M06 A3034 RMK A01 T10251056  RH  079%=      5-min Rain = 0
KWE1 201252Z 18003KT M03/M06 A3033 RMK A01 T10251055  RH  079%=      5-min Rain = 0
KWE1 201253Z 19003KT M02/M06 A3034 RMK A01 T10241055  RH  080%=      5-min Rain = 0
KWE1 201254Z 19003KT M03/M06 A3034 RMK A01 T10251055  RH  080%=      5-min Rain = 0
KWE1 201255Z 19003KT M03/M05 A3034 RMK A01 T10251054  RH  080%=      5-min Rain = 0
KWE1 201256Z 19003KT M02/M05 A3034 RMK A01 T10241054  RH  080%=      5-min Rain = 0
KWE1 201257Z 19003KT M03/M05 A3034 RMK A01 T10251054  RH  080%=      5-min Rain = 0
KWE1 201258Z 19004KT M02/M05 A3034 RMK A01 T10241054  RH  080%=      5-min Rain = 0
KWE1 201259Z 19004KT M02/M05 A3034 RMK A01 T10241054  RH  080%=      5-min Rain = 0
KWE1 201300Z 20003KT M02/M05 A3034 RMK A01 T10241054  RH  080%=      5-min Rain = 0
KWE1 201301Z 20004KT M02/M06 A3034 RMK A01 T10241055  RH  079%=      5-min Rain = 0
KWE1 201302Z 20005KT M02/M06 A3034 RMK A01 T10231055  RH  079%=      5-min Rain = 0
KWE1 201303Z 20004KT M02/M06 A3034 RMK A01 T10231056  RH  078%=      5-min Rain = 0
KWE1 201304Z 20003KT M02/M06 A3034 RMK A01 T10231056  RH  078%=      5-min Rain = 0
KWE1 201305Z 19003KT M02/M06 A3034 RMK A01 T10221055  RH  078%=      5-min Rain = 0
KWE1 201306Z 19003KT M02/M06 A3034 RMK A01 T10221055  RH  078%=      5-min Rain = 0
KWE1 201307Z 19003KT M02/M06 A3034 RMK A01 T10231055  RH  078%=      5-min Rain = 0
KWE1 201308Z 19003KT M02/M06 A3034 RMK A01 T10231056  RH  078%=      5-min Rain = 0
KWE1 201309Z 19003KT M02/M06 A3034 RMK A01 T10231056  RH  078%=      5-min Rain = 0
KWE1 201310Z 19003KT M02/M06 A3034 RMK A01 T10231055  RH  079%=      5-min Rain = 0
KWE1 201311Z 19002KT M02/M06 A3034 RMK A01 T10241055  RH  079%=      5-min Rain = 0
KWE1 201312Z 18003KT M02/M06 A3034 RMK A01 T10241055  RH  079%=      5-min Rain = 0
KWE1 201313Z 18003KT M02/M06 A3034 RMK A01 T10241055  RH  079%=      5-min Rain = 0
KWE1 201314Z 18003KT M02/M06 A3034 RMK A01 T10241055  RH  079%=      5-min Rain = 0
KWE1 201315Z 18003KT M02/M06 A3034 RMK A01 T10241056  RH  079%=      5-min Rain = 0
KWE1 201316Z 18003KT M02/M06 A3034 RMK A01 T10241056  RH  079%=      5-min Rain = 0
KWE1 201317Z 19003KT M02/M06 A3034 RMK A01 T10241056  RH  079%=      5-min Rain = 0
KWE1 201318Z 19004KT M02/M06 A3034 RMK A01 T10241056  RH  079%=      5-min Rain = 0
KWE1 201319Z 19004KT M02/M06 A3034 RMK A01 T10241056  RH  079%=      5-min Rain = 0
KWE1 201320Z 19004KT M02/M06 A3034 RMK A01 T10241056  RH  079%=      5-min Rain = 0
KWE1 201321Z 20004KT M02/M06 A3034 RMK A01 T10241056  RH  079%=      5-min Rain = 0
KWE1 201322Z 20004KT M02/M06 A3034 RMK A01 T10241056  RH  079%=      5-min Rain = 0
KWE1 201323Z 20004KT M02/M06 A3034 RMK A01 T10241056  RH  079%=      5-min Rain = 0
KWE1 201324Z 20004KT M02/M06 A3034 RMK A01 T10241056  RH  078%=      5-min Rain = 0
KWE1 201325Z 20004KT M02/M06 A3034 RMK A01 T10241057  RH  078%=      5-min Rain = 0
KWE1 201326Z 20004KT M02/M06 A3034 RMK A01 T10231056  RH  078%=      5-min Rain = 0
KWE1 201327Z 20005KT M02/M06 A3034 RMK A01 T10231056  RH  078%=      5-min Rain = 0
KWE1 201328Z 20004KT M02/M06 A3035 RMK A01 T10231055  RH  079%=      5-min Rain = 0
KWE1 201329Z 20004KT M02/M06 A3034 RMK A01 T10231055  RH  079%=      5-min Rain = 0
KWE1 201330Z 21004KT M02/M06 A3034 RMK A01 T10231055  RH  079%=      5-min Rain = 0
KWE1 201331Z 20004KT M02/M06 A3034 RMK A01 T10231055  RH  079%=      5-min Rain = 0
KWE1 201332Z 20005KT M02/M06 A3034 RMK A01 T10231056  RH  078%=      5-min Rain = 0
KWE1 201333Z 19004KT M02/M06 A3034 RMK A01 T10231057  RH  078%=      5-min Rain = 0
KWE1 201334Z 19004KT M02/M06 A3034 RMK A01 T10231058  RH  077%=      5-min Rain = 0
KWE1 201335Z 19004KT M02/M06 A3034 RMK A01 T10231059  RH  076%=      5-min Rain = 0
KWE1 201336Z 19004KT M02/M06 A3034 RMK A01 T10231059  RH  076%=      5-min Rain = 0
KWE1 201337Z 19004KT M02/M06 A3034 RMK A01 T10231059  RH  076%=      5-min Rain = 0
KWE1 201338Z 19003KT M02/M06 A3034 RMK A01 T10221058  RH  076%=      5-min Rain = 0
KWE1 201339Z 18003KT M02/M06 A3034 RMK A01 T10221058  RH  076%=      5-min Rain = 0
KWE1 201340Z 19004KT M02/M06 A3035 RMK A01 T10221058  RH  076%=      5-min Rain = 0
KWE1 201341Z 19004KT M02/M06 A3035 RMK A01 T10221058  RH  076%=      5-min Rain = 0
KWE1 201342Z 20004KT M02/M06 A3035 RMK A01 T10221058  RH  076%=      5-min Rain = 0
KWE1 201343Z 19004KT M02/M06 A3035 RMK A01 T10221058  RH  077%=      5-min Rain = 0
KWE1 201344Z 19004KT M02/M06 A3035 RMK A01 T10221058  RH  077%=      5-min Rain = 0
KWE1 201345Z 19003KT M02/M06 A3035 RMK A01 T10221058  RH  076%=      5-min Rain = 0
KWE1 201346Z 20004KT M02/M06 A3035 RMK A01 T10231058  RH  076%=      5-min Rain = 0
KWE1 201347Z 20003KT M02/M06 A3035 RMK A01 T10221058  RH  076%=      5-min Rain = 0
KWE1 201348Z 20003KT M02/M06 A3034 RMK A01 T10231059  RH  076%=      5-min Rain = 0
KWE1 201349Z 20003KT M02/M06 A3034 RMK A01 T10221059  RH  076%=      5-min Rain = 0
KWE1 201350Z 20003KT M02/M06 A3034 RMK A01 T10221059  RH  076%=      5-min Rain = 0
KWE1 201351Z 19004KT M02/M06 A3034 RMK A01 T10221059  RH  076%=      5-min Rain = 0
KWE1 201352Z 20003KT M02/M06 A3035 RMK A01 T10221059  RH  076%=      5-min Rain = 0
KWE1 201353Z 20004KT M02/M06 A3035 RMK A01 T10231058  RH  076%=      5-min Rain = 0
KWE1 201354Z 20004KT M02/M06 A3035 RMK A01 T10231059  RH  076%=      5-min Rain = 0
KWE1 201355Z 21003KT M02/M06 A3035 RMK A01 T10231058  RH  076%=      5-min Rain = 0
KWE1 201356Z 21003KT M02/M06 A3035 RMK A01 T10231058  RH  077%=      5-min Rain = 0
KWE1 201357Z 21003KT M02/M06 A3035 RMK A01 T10231057  RH  077%=      5-min Rain = 0
KWE1 201358Z 21004KT M02/M06 A3035 RMK A01 T10231058  RH  077%=      5-min Rain = 0
KWE1 201359Z 21004KT M02/M06 A3035 RMK A01 T10231058  RH  077%=      5-min Rain = 0
KWE1 201400Z 21004KT M02/M06 A3035 RMK A01 T10241058  RH  077%=      5-min Rain = 0
KWE1 201401Z 21004KT M02/M06 A3035 RMK A01 T10241058  RH  077%=      5-min Rain = 0
KWE1 201402Z 20004KT M02/M06 A3035 RMK A01 T10241059  RH  077%=      5-min Rain = 0
KWE1 201403Z 20004KT M02/M06 A3035 RMK A01 T10241058  RH  077%=      5-min Rain = 0
KWE1 201404Z 20004KT M02/M06 A3035 RMK A01 T10231058  RH  077%=      5-min Rain = 0
KWE1 201405Z 19004KT M02/M06 A3035 RMK A01 T10231058  RH  077%=      5-min Rain = 0
KWE1 201406Z 20004KT M02/M06 A3035 RMK A01 T10221058  RH  076%=      5-min Rain = 0
KWE1 201407Z 19004KT M02/M06 A3035 RMK A01 T10221058  RH  076%=      5-min Rain = 0
KWE1 201408Z 19003KT M02/M06 A3035 RMK A01 T10221059  RH  076%=      5-min Rain = 0
KWE1 201409Z 18003KT M02/M06 A3035 RMK A01 T10221059  RH  076%=      5-min Rain = 0
KWE1 201410Z 18003KT M02/M06 A3035 RMK A01 T10211059  RH  075%=      5-min Rain = 0
KWE1 201411Z 18003KT M02/M06 A3035 RMK A01 T10211059  RH  075%=      5-min Rain = 0
KWE1 201412Z 18004KT M02/M06 A3035 RMK A01 T10211059  RH  075%=      5-min Rain = 0
KWE1 201413Z 19004KT M02/M06 A3035 RMK A01 T10211059  RH  075%=      5-min Rain = 0
KWE1 201414Z 19004KT M02/M06 A3035 RMK A01 T10211060  RH  075%=      5-min Rain = 0
KWE1 201415Z 19006KT M02/M06 A3035 RMK A01 T10201060  RH  074%=      5-min Rain = 0
KWE1 201416Z 20005KT M02/M06 A3035 RMK A01 T10201060  RH  074%=      5-min Rain = 0
KWE1 201417Z 20006KT M02/M06 A3035 RMK A01 T10201060  RH  074%=      5-min Rain = 0
KWE1 201418Z 20006KT M02/M06 A3035 RMK A01 T10201060  RH  074%=      5-min Rain = 0
KWE1 201419Z 20006KT M02/M06 A3034 RMK A01 T10191060  RH  074%=      5-min Rain = 0
KWE1 201420Z 20005KT M02/M06 A3034 RMK A01 T10191059  RH  074%=      5-min Rain = 0
KWE1 201421Z 20005KT M02/M06 A3035 RMK A01 T10191059  RH  074%=      5-min Rain = 0
KWE1 201422Z 20006KT M02/M06 A3035 RMK A01 T10191059  RH  074%=      5-min Rain = 0
KWE1 201423Z 19005KT M02/M06 A3035 RMK A01 T10181058  RH  074%=      5-min Rain = 0
KWE1 201424Z 20005KT M02/M06 A3035 RMK A01 T10181058  RH  074%=      5-min Rain = 0
KWE1 201425Z 19006KT M02/M06 A3035 RMK A01 T10181059  RH  074%=      5-min Rain = 0
KWE1 201426Z 19006KT M02/M06 A3035 RMK A01 T10181059  RH  074%=      5-min Rain = 0
KWE1 201427Z 19004KT M02/M06 A3035 RMK A01 T10181059  RH  074%=      5-min Rain = 0
KWE1 201428Z 19004KT M02/M06 A3035 RMK A01 T10181059  RH  073%=      5-min Rain = 0
KWE1 201429Z 21004KT M02/M06 A3035 RMK A01 T10181059  RH  073%=      5-min Rain = 0
KWE1 201430Z 20005KT M02/M06 A3035 RMK A01 T10171059  RH  073%=      5-min Rain = 0
KWE1 201431Z 20005KT M02/M06 A3035 RMK A01 T10171059  RH  073%=      5-min Rain = 0
KWE1 201432Z 19005KT M02/M06 A3035 RMK A01 T10171059  RH  073%=      5-min Rain = 0
KWE1 201433Z 20004KT M02/M06 A3035 RMK A01 T10171059  RH  073%=      5-min Rain = 0
KWE1 201434Z 20006KT M02/M06 A3035 RMK A01 T10161058  RH  073%=      5-min Rain = 0
KWE1 201435Z 20004KT M02/M06 A3035 RMK A01 T10161059  RH  073%=      5-min Rain = 0
KWE1 201436Z 20004KT M02/M06 A3035 RMK A01 T10151058  RH  072%=      5-min Rain = 0
KWE1 201437Z 20005KT M02/M06 A3035 RMK A01 T10151058  RH  072%=      5-min Rain = 0
KWE1 201438Z 19004KT M01/M06 A3035 RMK A01 T10141058  RH  072%=      5-min Rain = 0
KWE1 201439Z 19004KT M01/M06 A3035 RMK A01 T10131058  RH  072%=      5-min Rain = 0
KWE1 201440Z 19004KT M01/M06 A3035 RMK A01 T10131058  RH  071%=      5-min Rain = 0
KWE1 201441Z 19005KT M01/M06 A3034 RMK A01 T10121058  RH  071%=      5-min Rain = 0
KWE1 201442Z 19005KT M01/M06 A3034 RMK A01 T10121058  RH  071%=      5-min Rain = 0
KWE1 201443Z 18005KT M01/M06 A3034 RMK A01 T10111058  RH  070%=      5-min Rain = 0
KWE1 201444Z 19004KT M01/M06 A3034 RMK A01 T10101058  RH  070%=      5-min Rain = 0
KWE1 201445Z 19004KT M01/M06 A3034 RMK A01 T10101056  RH  071%=      5-min Rain = 0
KWE1 201446Z 18005KT M01/M06 A3034 RMK A01 T10081056  RH  070%=      5-min Rain = 0
KWE1 201447Z 18004KT M01/M06 A3034 RMK A01 T10091058  RH  069%=      5-min Rain = 0
KWE1 201448Z 18003KT M01/M06 A3034 RMK A01 T10081057  RH  069%=      5-min Rain = 0
KWE1 201449Z 17004KT M01/M06 A3034 RMK A01 T10061055  RH  070%=      5-min Rain = 0
KWE1 201450Z 17004KT M01/M05 A3034 RMK A01 T10051054  RH  069%=      5-min Rain = 0
KWE1 201451Z 17004KT M00/M05 A3034 RMK A01 T10031054  RH  068%=      5-min Rain = 0
KWE1 201452Z 17004KT M00/M06 A3034 RMK A01 T10031056  RH  067%=      5-min Rain = 0
KWE1 201453Z 17005KT M00/M06 A3034 RMK A01 T10031058  RH  066%=      5-min Rain = 0
KWE1 201454Z 16005KT M00/M06 A3034 RMK A01 T10021058  RH  066%=      5-min Rain = 0
KWE1 201455Z 17005KT M00/M06 A3034 RMK A01 T10011057  RH  066%=      5-min Rain = 0
KWE1 201456Z 18005KT M00/M06 A3034 RMK A01 T10011059  RH  065%=      5-min Rain = 0
KWE1 201457Z 18006KT M00/M06 A3034 RMK A01 T10011061  RH  064%=      5-min Rain = 0
KWE1 201458Z 18006KT M00/M06 A3034 RMK A01 T10011061  RH  064%=      5-min Rain = 0
KWE1 201459Z 19005KT M00/M06 A3035 RMK A01 T10011060  RH  064%=      5-min Rain = 0
KWE1 201500Z 18005KT M00/M06 A3035 RMK A01 T10011063  RH  063%=      5-min Rain = 0
KWE1 201501Z 18005KT M00/M06 A3035 RMK A01 T10011062  RH  063%=      5-min Rain = 0
KWE1 201502Z 18005KT M00/M06 A3035 RMK A01 T10011062  RH  064%=      5-min Rain = 0
KWE1 201503Z 17004KT M00/M06 A3034 RMK A01 T10011062  RH  063%=      5-min Rain = 0
KWE1 201504Z 17005KT M00/M06 A3034 RMK A01 T10011062  RH  063%=      5-min Rain = 0
KWE1 201505Z 17005KT 00/06 A3034 RMK A01 T00-00-62  RH  063%=      5-min Rain = 0
KWE1 201506Z 17005KT 00/06 A3034 RMK A01 T00-00-61  RH  064%=      5-min Rain = 0
KWE1 201507Z 18004KT 00/06 A3034 RMK A01 T00000-60  RH  064%=      5-min Rain = 0
KWE1 201508Z 18004KT 00/M06 A3034 RMK A01 T00011060  RH  064%=      5-min Rain = 0
KWE1 201509Z 18004KT 00/M06 A3034 RMK A01 T00011060  RH  063%=      5-min Rain = 0
KWE1 201510Z 19006KT 00/M06 A3034 RMK A01 T00031059  RH  063%=      5-min Rain = 0
KWE1 201511Z 19006KT 00/M06 A3034 RMK A01 T00021064  RH  061%=      5-min Rain = 0
KWE1 201512Z 19006KT 00/M07 A3034 RMK A01 T00021066  RH  060%=      5-min Rain = 0
KWE1 201513Z 19006KT 00/M07 A3034 RMK A01 T00021065  RH  060%=      5-min Rain = 0
KWE1 201514Z 20006KT 00/M07 A3034 RMK A01 T00031065  RH  060%=      5-min Rain = 0
KWE1 201515Z 19006KT 00/M07 A3034 RMK A01 T00031065  RH  060%=      5-min Rain = 0
KWE1 201516Z 18006KT 00/M06 A3034 RMK A01 T00041064  RH  060%=      5-min Rain = 0
KWE1 201517Z 18005KT 00/M07 A3034 RMK A01 T00041066  RH  059%=      5-min Rain = 0
KWE1 201518Z 19006KT 01/M07 A3034 RMK A01 T00051066  RH  059%=      5-min Rain = 0
KWE1 201519Z 19005KT 01/M07 A3034 RMK A01 T00051066  RH  059%=      5-min Rain = 0
KWE1 201520Z 19007KT 01/M07 A3034 RMK A01 T00051067  RH  059%=      5-min Rain = 0
KWE1 201521Z 19005KT 01/M07 A3034 RMK A01 T00061065  RH  059%=      5-min Rain = 0
KWE1 201522Z 19005KT 01/M06 A3034 RMK A01 T00071063  RH  059%=      5-min Rain = 0
KWE1 201523Z 17004KT 01/M06 A3034 RMK A01 T00091060  RH  060%=      5-min Rain = 0
KWE1 201524Z 18004KT 01/M06 A3034 RMK A01 T00101058  RH  060%=      5-min Rain = 0
KWE1 201525Z 19003KT 01/M06 A3034 RMK A01 T00111059  RH  060%=      5-min Rain = 0
KWE1 201526Z 18004KT 01/M06 A3034 RMK A01 T00121059  RH  059%=      5-min Rain = 0
KWE1 201527Z 17003KT 01/M06 A3034 RMK A01 T00121060  RH  059%=      5-min Rain = 0
KWE1 201528Z 17005KT 01/M06 A3034 RMK A01 T00121061  RH  058%=      5-min Rain = 0
KWE1 201529Z 17005KT 01/M06 A3034 RMK A01 T00121062  RH  058%=      5-min Rain = 0
KWE1 201530Z 16004KT 01/M06 A3034 RMK A01 T00121064  RH  057%=      5-min Rain = 0
KWE1 201531Z 16005KT 01/M06 A3034 RMK A01 T00121063  RH  057%=      5-min Rain = 0
KWE1 201532Z 17004KT 01/M06 A3034 RMK A01 T00121062  RH  057%=      5-min Rain = 0
KWE1 201533Z 17004KT 01/M06 A3034 RMK A01 T00131060  RH  058%=      5-min Rain = 0
KWE1 201534Z 16004KT 01/M06 A3034 RMK A01 T00141060  RH  058%=      5-min Rain = 0
KWE1 201535Z 17005KT 02/M06 A3034 RMK A01 T00151059  RH  058%=      5-min Rain = 0
KWE1 201536Z 17005KT 02/M06 A3034 RMK A01 T00151062  RH  057%=      5-min Rain = 0
KWE1 201537Z 17005KT 01/M06 A3034 RMK A01 T00131064  RH  056%=      5-min Rain = 0
KWE1 201538Z 17005KT 01/M06 A3034 RMK A01 T00121064  RH  057%=      5-min Rain = 0
KWE1 201539Z 19004KT 01/M06 A3034 RMK A01 T00121062  RH  058%=      5-min Rain = 0
KWE1 201540Z 17005KT 01/M06 A3035 RMK A01 T00121061  RH  058%=      5-min Rain = 0
KWE1 201541Z 17004KT 01/M06 A3035 RMK A01 T00121061  RH  058%=      5-min Rain = 0
KWE1 201542Z 17005KT 01/M06 A3035 RMK A01 T00131059  RH  059%=      5-min Rain = 0
KWE1 201543Z 18005KT 01/M06 A3035 RMK A01 T00131061  RH  058%=      5-min Rain = 0
KWE1 201544Z 17006KT 01/M06 A3034 RMK A01 T00131060  RH  058%=      5-min Rain = 0
KWE1 201545Z 17005KT 01/M06 A3034 RMK A01 T00121061  RH  058%=      5-min Rain = 0
KWE1 201546Z 17005KT 01/M06 A3034 RMK A01 T00111061  RH  058%=      5-min Rain = 0
KWE1 201547Z 18004KT 01/M06 A3034 RMK A01 T00121058  RH  059%=      5-min Rain = 0
KWE1 201548Z 17006KT 01/M06 A3034 RMK A01 T00141056  RH  060%=      5-min Rain = 0
KWE1 201549Z 18006KT 01/M06 A3034 RMK A01 T00141059  RH  058%=      5-min Rain = 0
KWE1 201550Z 17004KT 02/M06 A3034 RMK A01 T00151058  RH  059%=      5-min Rain = 0
KWE1 201551Z 18006KT 02/M06 A3034 RMK A01 T00161055  RH  059%=      5-min Rain = 0
KWE1 201552Z 19005KT 02/M06 A3034 RMK A01 T00161057  RH  058%=      5-min Rain = 0
KWE1 201553Z 19007KT 02/M06 A3034 RMK A01 T00161058  RH  058%=      5-min Rain = 0
KWE1 201554Z 18007KT 02/M06 A3034 RMK A01 T00151060  RH  058%=      5-min Rain = 0
KWE1 201555Z 18006KT 01/M06 A3034 RMK A01 T00141060  RH  058%=      5-min Rain = 0
KWE1 201556Z 18005KT 01/M06 A3034 RMK A01 T00141058  RH  059%=      5-min Rain = 0
KWE1 201557Z 18005KT 02/M06 A3034 RMK A01 T00161057  RH  058%=      5-min Rain = 0
KWE1 201558Z 19005KT 02/M06 A3034 RMK A01 T00161057  RH  058%=      5-min Rain = 0
KWE1 201559Z 18006KT 02/M06 A3034 RMK A01 T00161057  RH  058%=      5-min Rain = 0
KWE1 201600Z 18006KT 02/M06 A3034 RMK A01 T00161057  RH  058%=      5-min Rain = 0
KWE1 201601Z 19006KT 02/M06 A3034 RMK A01 T00161056  RH  059%=      5-min Rain = 0
KWE1 201602Z 20006KT 02/M06 A3034 RMK A01 T00161057  RH  058%=      5-min Rain = 0
KWE1 201603Z 19005KT 02/M06 A3034 RMK A01 T00161056  RH  059%=      5-min Rain = 0
KWE1 201604Z 19006KT 02/M05 A3034 RMK A01 T00171053  RH  060%=      5-min Rain = 0
KWE1 201605Z 19008KT 02/M06 A3034 RMK A01 T00171055  RH  059%=      5-min Rain = 0
KWE1 201606Z 19008KT 02/M06 A3034 RMK A01 T00151057  RH  059%=      5-min Rain = 0
KWE1 201607Z 18008KT 02/M06 A3033 RMK A01 T00151055  RH  060%=      5-min Rain = 0
KWE1 201608Z 20009KT 02/M05 A3033 RMK A01 T00151053  RH  060%=      5-min Rain = 0
KWE1 201609Z 19008KT 02/M05 A3034 RMK A01 T00151054  RH  060%=      5-min Rain = 0
KWE1 201610Z 19007KT 02/M05 A3034 RMK A01 T00151054  RH  060%=      5-min Rain = 0
KWE1 201611Z 19007KT 02/M05 A3034 RMK A01 T00151053  RH  061%=      5-min Rain = 0
KWE1 201612Z 19007KT 02/M05 A3034 RMK A01 T00161052  RH  061%=      5-min Rain = 0
KWE1 201613Z 18006KT 02/M05 A3034 RMK A01 T00161052  RH  060%=      5-min Rain = 0
KWE1 201614Z 19008KT 02/M05 A3034 RMK A01 T00161052  RH  060%=      5-min Rain = 0
KWE1 201615Z 18008KT 02/M05 A3034 RMK A01 T00171053  RH  060%=      5-min Rain = 0
KWE1 201616Z 19007KT 02/M05 A3034 RMK A01 T00171053  RH  060%=      5-min Rain = 0
KWE1 201617Z 19008KT 02/M05 A3034 RMK A01 T00171052  RH  060%=      5-min Rain = 0
KWE1 201618Z 19009KT 02/M05 A3034 RMK A01 T00171053  RH  060%=      5-min Rain = 0
KWE1 201619Z 19008KT 02/M06 A3034 RMK A01 T00161055  RH  059%=      5-min Rain = 0
KWE1 201620Z 20008KT 02/M06 A3033 RMK A01 T00161055  RH  059%=      5-min Rain = 0
KWE1 201621Z 19007KT 02/M05 A3033 RMK A01 T00161054  RH  060%=      5-min Rain = 0
KWE1 201622Z 19007KT 02/M05 A3033 RMK A01 T00171053  RH  060%=      5-min Rain = 0
KWE1 201623Z 18006KT 02/M05 A3033 RMK A01 T00181051  RH  060%=      5-min Rain = 0
KWE1 201624Z 19008KT 02/M05 A3033 RMK A01 T00191051  RH  060%=      5-min Rain = 0
KWE1 201625Z 19007KT 02/M05 A3033 RMK A01 T00181052  RH  060%=      5-min Rain = 0
KWE1 201626Z 19006KT 02/M05 A3033 RMK A01 T00191050  RH  060%=      5-min Rain = 0
KWE1 201627Z 18009KT 02/M05 A3033 RMK A01 T00191048  RH  061%=      5-min Rain = 0
KWE1 201628Z 19007KT 02/M05 A3033 RMK A01 T00201049  RH  060%=      5-min Rain = 0
KWE1 201629Z 19007KT 02/M05 A3033 RMK A01 T00201050  RH  060%=      5-min Rain = 0
KWE1 201630Z 18008KT 02/M05 A3033 RMK A01 T00191050  RH  060%=      5-min Rain = 0
KWE1 201631Z 19008KT 02/M05 A3033 RMK A01 T00201050  RH  060%=      5-min Rain = 0
KWE1 201632Z 19008KT 02/M05 A3033 RMK A01 T00201051  RH  059%=      5-min Rain = 0
KWE1 201633Z 19008KT 02/M05 A3033 RMK A01 T00191051  RH  060%=      5-min Rain = 0
KWE1 201634Z 19007KT 02/M05 A3033 RMK A01 T00201050  RH  060%=      5-min Rain = 0
KWE1 201635Z 19008KT 02/M05 A3033 RMK A01 T00211048  RH  060%=      5-min Rain = 0
KWE1 201636Z 18007KT 02/M05 A3033 RMK A01 T00221047  RH  060%=      5-min Rain = 0
KWE1 201637Z 18008KT 02/M05 A3033 RMK A01 T00221048  RH  060%=      5-min Rain = 0
KWE1 201638Z 19007KT 02/M05 A3033 RMK A01 T00221049  RH  059%=      5-min Rain = 0
KWE1 201639Z 19008KT 02/M05 A3033 RMK A01 T00241048  RH  059%=      5-min Rain = 0
KWE1 201640Z 18008KT 02/M05 A3033 RMK A01 T00241050  RH  058%=      5-min Rain = 0
KWE1 201641Z 19008KT 03/M05 A3032 RMK A01 T00251049  RH  058%=      5-min Rain = 0
KWE1 201642Z 20009KT 03/M05 A3032 RMK A01 T00261049  RH  058%=      5-min Rain = 0
KWE1 201643Z 18009KT 03/M05 A3032 RMK A01 T00261052  RH  056%=      5-min Rain = 0
KWE1 201644Z 19009KT 03/M05 A3032 RMK A01 T00271052  RH  056%=      5-min Rain = 0
KWE1 201645Z 19009KT 03/M05 A3032 RMK A01 T00271052  RH  056%=      5-min Rain = 0
KWE1 201646Z 19007KT 03/M05 A3032 RMK A01 T00271052  RH  056%=      5-min Rain = 0
KWE1 201647Z 19007KT 03/M05 A3032 RMK A01 T00271052  RH  056%=      5-min Rain = 0
KWE1 201648Z 19009KT 03/M05 A3032 RMK A01 T00281051  RH  056%=      5-min Rain = 0
KWE1 201649Z 18007KT 03/M05 A3032 RMK A01 T00281054  RH  055%=      5-min Rain = 0
KWE1 201650Z 20009KT 03/M05 A3032 RMK A01 T00281053  RH  055%=      5-min Rain = 0
KWE1 201651Z 20008KT 03/M05 A3032 RMK A01 T00291052  RH  055%=      5-min Rain = 0
KWE1 201652Z 18010KT 03/M05 A3032 RMK A01 T00291054  RH  054%=      5-min Rain = 0
KWE1 201653Z 18009KT 03/M06 A3032 RMK A01 T00291055  RH  054%=      5-min Rain = 0
KWE1 201654Z 19009KT 03/M05 A3032 RMK A01 T00301054  RH  054%=      5-min Rain = 0
KWE1 201655Z 19009KT 03/M05 A3032 RMK A01 T00311053  RH  054%=      5-min Rain = 0
KWE1 201656Z 19009KT 03/M05 A3032 RMK A01 T00321053  RH  054%=      5-min Rain = 0
KWE1 201657Z 19009KT 03/M05 A3032 RMK A01 T00321053  RH  054%=      5-min Rain = 0
KWE1 201658Z 19009KT 03/M05 A3032 RMK A01 T00321053  RH  053%=      5-min Rain = 0
KWE1 201659Z 20008KT 03/M05 A3031 RMK A01 T00331052  RH  054%=      5-min Rain = 0
KWE1 201700Z 21009KT 03/M05 A3031 RMK A01 T00341052  RH  053%=      5-min Rain = 0
KWE1 201701Z 19009KT 03/M05 A3031 RMK A01 T00341053  RH  053%=      5-min Rain = 0
KWE1 201702Z 18010KT 04/M05 A3031 RMK A01 T00351050  RH  054%=      5-min Rain = 0
KWE1 201703Z 18008KT 04/M05 A3031 RMK A01 T00351051  RH  053%=      5-min Rain = 0
KWE1 201704Z 18007KT 04/M05 A3031 RMK A01 T00361049  RH  054%=      5-min Rain = 0
KWE1 201705Z 18008KT 04/M05 A3031 RMK A01 T00371048  RH  054%=      5-min Rain = 0
KWE1 201706Z 19007KT 04/M05 A3031 RMK A01 T00381047  RH  054%=      5-min Rain = 0
KWE1 201707Z 19008KT 04/M05 A3031 RMK A01 T00391045  RH  054%=      5-min Rain = 0
KWE1 201708Z 18008KT 04/M05 A3031 RMK A01 T00391047  RH  053%=      5-min Rain = 0
KWE1 201709Z 19007KT 04/M05 A3031 RMK A01 T00391047  RH  054%=      5-min Rain = 0
KWE1 201710Z 19007KT 04/M05 A3031 RMK A01 T00381047  RH  054%=      5-min Rain = 0
KWE1 201711Z 19007KT 04/M05 A3031 RMK A01 T00381047  RH  054%=      5-min Rain = 0
KWE1 201712Z 18007KT 04/M05 A3031 RMK A01 T00391047  RH  054%=      5-min Rain = 0
KWE1 201713Z 17004KT 04/M04 A3031 RMK A01 T00391044  RH  055%=      5-min Rain = 0
KWE1 201714Z 18007KT 04/M04 A3031 RMK A01 T00411040  RH  055%=      5-min Rain = 0
KWE1 201715Z 18006KT 04/M05 A3031 RMK A01 T00411045  RH  054%=      5-min Rain = 0
KWE1 201716Z 18007KT 04/M05 A3031 RMK A01 T00401045  RH  054%=      5-min Rain = 0
KWE1 201717Z 18007KT 04/M05 A3031 RMK A01 T00401046  RH  054%=      5-min Rain = 0
KWE1 201718Z 17006KT 04/M05 A3031 RMK A01 T00391047  RH  053%=      5-min Rain = 0
KWE1 201719Z 18008KT 04/M04 A303 RMK A01 T00391044  RH  055%=      5-min Rain = 0
KWE1 201720Z 17006KT 04/M04 A303 RMK A01 T00401044  RH  054%=      5-min Rain = 0
KWE1 201721Z 17006KT 04/M04 A3031 RMK A01 T00411042  RH  055%=      5-min Rain = 0
KWE1 201722Z 17006KT 04/M04 A303 RMK A01 T00411044  RH  054%=      5-min Rain = 0
KWE1 201723Z 17006KT 04/M04 A303 RMK A01 T00411044  RH  054%=      5-min Rain = 0
KWE1 201724Z 17006KT 04/M04 A303 RMK A01 T00411042  RH  055%=      5-min Rain = 0
KWE1 201725Z 17008KT 04/M04 A303 RMK A01 T00431044  RH  053%=      5-min Rain = 0
KWE1 201726Z 17007KT 04/M04 A303 RMK A01 T00431044  RH  053%=      5-min Rain = 0
KWE1 201727Z 17007KT 04/M05 A303 RMK A01 T00441045  RH  053%=      5-min Rain = 0
KWE1 201728Z 16007KT 04/M05 A303 RMK A01 T00441047  RH  052%=      5-min Rain = 0
KWE1 201729Z 17006KT 04/M04 A303 RMK A01 T00441044  RH  053%=      5-min Rain = 0
KWE1 201730Z 17007KT 05/M04 A303 RMK A01 T00451043  RH  053%=      5-min Rain = 0
KWE1 201731Z 16006KT 05/M05 A303 RMK A01 T00451046  RH  052%=      5-min Rain = 0
KWE1 201732Z 17008KT 05/M05 A303 RMK A01 T00461045  RH  052%=      5-min Rain = 0
KWE1 201733Z 17008KT 05/M05 A303 RMK A01 T00461045  RH  051%=      5-min Rain = 0
KWE1 201734Z 18008KT 05/M05 A303 RMK A01 T00461046  RH  051%=      5-min Rain = 0
KWE1 201735Z 18006KT 05/M05 A303 RMK A01 T00471045  RH  051%=      5-min Rain = 0
KWE1 201736Z 18006KT 05/M04 A303 RMK A01 T00481043  RH  052%=      5-min Rain = 0
KWE1 201737Z 19006KT 05/M04 A303 RMK A01 T00481044  RH  051%=      5-min Rain = 0
KWE1 201738Z 19008KT 05/M04 A303 RMK A01 T00481043  RH  051%=      5-min Rain = 0
KWE1 201739Z 18007KT 05/M04 A303 RMK A01 T00481043  RH  052%=      5-min Rain = 0
KWE1 201740Z 18008KT 05/M04 A303 RMK A01 T00481041  RH  052%=      5-min Rain = 0
KWE1 201741Z 18006KT 05/M04 A303 RMK A01 T00501042  RH  052%=      5-min Rain = 0
KWE1 201742Z 18007KT 05/M04 A303 RMK A01 T00511041  RH  052%=      5-min Rain = 0
KWE1 201743Z 17007KT 05/M04 A303 RMK A01 T00511042  RH  051%=      5-min Rain = 0
KWE1 201744Z 17007KT 05/M04 A303 RMK A01 T00511041  RH  051%=      5-min Rain = 0
KWE1 201745Z 18006KT 05/M04 A303 RMK A01 T00541038  RH  052%=      5-min Rain = 0
KWE1 201746Z 17007KT 06/M04 A303 RMK A01 T00551038  RH  051%=      5-min Rain = 0
KWE1 201747Z 17007KT 06/M04 A303 RMK A01 T00561040  RH  050%=      5-min Rain = 0
KWE1 201748Z 17005KT 06/M04 A303 RMK A01 T00561042  RH  049%=      5-min Rain = 0
KWE1 201749Z 16006KT 06/M04 A303 RMK A01 T00551043  RH  049%=      5-min Rain = 0
KWE1 201750Z 16008KT 06/M05 A303 RMK A01 T00561045  RH  048%=      5-min Rain = 0
KWE1 201751Z 17006KT 06/M04 A3029 RMK A01 T00571041  RH  049%=      5-min Rain = 0
KWE1 201752Z 17006G11KT 06/M04 A3029 RMK A01 T00591037  RH  050%=      5-min Rain = 0
KWE1 201753Z 17008KT 06/M04 A3029 RMK A01 T00611039  RH  049%=      5-min Rain = 0
KWE1 201754Z 18007KT 06/M04 A3029 RMK A01 T00621036  RH  049%=      5-min Rain = 0
KWE1 201755Z 18008KT 06/M04 A3029 RMK A01 T00631038  RH  049%=      5-min Rain = 0
KWE1 201756Z 19008KT 06/M04 A3028 RMK A01 T00611043  RH  047%=      5-min Rain = 0
KWE1 201757Z 18008KT 06/M04 A3028 RMK A01 T00591042  RH  048%=      5-min Rain = 0
KWE1 201758Z 17008KT 06/M04 A3028 RMK A01 T00581044  RH  048%=      5-min Rain = 0
KWE1 201759Z 16007KT 06/M04 A3029 RMK A01 T00561040  RH  050%=      5-min Rain = 0
KWE1 201800Z 16007KT 06/M04 A3028 RMK A01 T00581036  RH  051%=      5-min Rain = 0
KWE1 201801Z 17006KT 06/M04 A3028 RMK A01 T00601038  RH  049%=      5-min Rain = 0
KWE1 201802Z 16005KT 06/M04 A3028 RMK A01 T00591039  RH  050%=      5-min Rain = 0
KWE1 201803Z 14006KT 06/M04 A3029 RMK A01 T00591038  RH  050%=      5-min Rain = 0
KWE1 201804Z 15005KT 06/M04 A3028 RMK A01 T00601038  RH  050%=      5-min Rain = 0
KWE1 201805Z 15006KT 06/M04 A3028 RMK A01 T00611036  RH  050%=      5-min Rain = 0
KWE1 201806Z 14008KT 06/M03 A3028 RMK A01 T00631034  RH  050%=      5-min Rain = 0
KWE1 201807Z 15007KT 06/M04 A3028 RMK A01 T00641038  RH  048%=      5-min Rain = 0
KWE1 201808Z 14004KT 06/M04 A3028 RMK A01 T00621039  RH  048%=      5-min Rain = 0
KWE1 201809Z 15007KT 06/M04 A3028 RMK A01 T00631036  RH  049%=      5-min Rain = 0
KWE1 201810Z 16007KT 06/M03 A3028 RMK A01 T00641034  RH  050%=      5-min Rain = 0
KWE1 201811Z 16007KT 07/M04 A3028 RMK A01 T00651035  RH  049%=      5-min Rain = 0
KWE1 201812Z 17007KT 07/M04 A3028 RMK A01 T00651036  RH  048%=      5-min Rain = 0
KWE1 201813Z 18006KT 06/M04 A3028 RMK A01 T00641038  RH  048%=      5-min Rain = 0
KWE1 201814Z 16007KT 07/M03 A3027 RMK A01 T00651034  RH  049%=      5-min Rain = 0
KWE1 201815Z 15008KT 07/M03 A3027 RMK A01 T00661033  RH  049%=      5-min Rain = 0
KWE1 201816Z 16006KT 07/M04 A3027 RMK A01 T00661038  RH  048%=      5-min Rain = 0
KWE1 201817Z 16005KT 07/M04 A3027 RMK A01 T00651038  RH  048%=      5-min Rain = 0
KWE1 201818Z 17005KT 07/M03 A3027 RMK A01 T00671034  RH  049%=      5-min Rain = 0
KWE1 201819Z 16007KT 07/M03 A3027 RMK A01 T00681034  RH  048%=      5-min Rain = 0
KWE1 201820Z 14006KT 07/M03 A3027 RMK A01 T00691034  RH  048%=      5-min Rain = 0
KWE1 201821Z 15006KT 07/M03 A3027 RMK A01 T00711034  RH  047%=      5-min Rain = 0
KWE1 201822Z 15008KT 07/M03 A3027 RMK A01 T00721032  RH  047%=      5-min Rain = 0
KWE1 201823Z 16008KT 07/M04 A3027 RMK A01 T00731035  RH  046%=      5-min Rain = 0
KWE1 201824Z 16005KT 07/M03 A3027 RMK A01 T00741031  RH  047%=      5-min Rain = 0
KWE1 201825Z 15005KT 08/M03 A3027 RMK A01 T00771027  RH  048%=      5-min Rain = 0
KWE1 201826Z 15008KT 08/M03 A3027 RMK A01 T00801029  RH  046%=      5-min Rain = 0
KWE1 201827Z 15005KT 08/M03 A3027 RMK A01 T00781033  RH  045%=      5-min Rain = 0
KWE1 201828Z 16006KT 08/M03 A3027 RMK A01 T00771031  RH  046%=      5-min Rain = 0
KWE1 201829Z 16006KT 08/M03 A3027 RMK A01 T00761032  RH  046%=      5-min Rain = 0
KWE1 201830Z 15006KT 07/M03 A3026 RMK A01 T00741032  RH  047%=      5-min Rain = 0
KWE1 201831Z 17005KT 08/M03 A3026 RMK A01 T00751028  RH  048%=      5-min Rain = 0
KWE1 201832Z 16006KT 08/M03 A3026 RMK A01 T00761029  RH  047%=      5-min Rain = 0
KWE1 201833Z 17007KT 08/M03 A3026 RMK A01 T00761031  RH  047%=      5-min Rain = 0
KWE1 201834Z 18007KT 08/M03 A3026 RMK A01 T00751032  RH  047%=      5-min Rain = 0
KWE1 201835Z 17006KT 08/M03 A3026 RMK A01 T00751029  RH  048%=      5-min Rain = 0
KWE1 201836Z 17006KT 08/M03 A3026 RMK A01 T00761027  RH  048%=      5-min Rain = 0
KWE1 201837Z 17008KT 08/M03 A3026 RMK A01 T00781027  RH  047%=      5-min Rain = 0
KWE1 201838Z 18008KT 08/M03 A3026 RMK A01 T00791031  RH  046%=      5-min Rain = 0
KWE1 201839Z 17008KT 08/M03 A3026 RMK A01 T00781032  RH  046%=      5-min Rain = 0
KWE1 201840Z 17005KT 08/M03 A3025 RMK A01 T00781032  RH  046%=      5-min Rain = 0
KWE1 201841Z 15006KT 08/M03 A3025 RMK A01 T00811025  RH  047%=      5-min Rain = 0
KWE1 201842Z 15009KT 08/M03 A3025 RMK A01 T00831025  RH  047%=      5-min Rain = 0
KWE1 201843Z 14009KT 08/M03 A3025 RMK A01 T00821032  RH  044%=      5-min Rain = 0
KWE1 201844Z 15007KT 08/M04 A3025 RMK A01 T00781037  RH  044%=      5-min Rain = 0
KWE1 201845Z 16006KT 08/M03 A3025 RMK A01 T00761034  RH  046%=      5-min Rain = 0
KWE1 201846Z 16008KT 08/M03 A3025 RMK A01 T00761032  RH  046%=      5-min Rain = 0
KWE1 201847Z 16008KT 08/M03 A3025 RMK A01 T00761031  RH  046%=      5-min Rain = 0
KWE1 201848Z 16007KT 08/M03 A3025 RMK A01 T00751034  RH  046%=      5-min Rain = 0
KWE1 201849Z 16007KT 08/M03 A3025 RMK A01 T00751031  RH  047%=      5-min Rain = 0
KWE1 201850Z 16010KT 08/M03 A3025 RMK A01 T00751029  RH  048%=      5-min Rain = 0
KWE1 201851Z 16008KT 08/M03 A3024 RMK A01 T00751032  RH  046%=      5-min Rain = 0
KWE1 201852Z 16008KT 08/M03 A3024 RMK A01 T00761032  RH  046%=      5-min Rain = 0
KWE1 201853Z 16009KT 08/M03 A3024 RMK A01 T00771032  RH  046%=      5-min Rain = 0
KWE1 201854Z 15007KT 08/M03 A3024 RMK A01 T00771033  RH  046%=      5-min Rain = 0
KWE1 201855Z 15007KT 08/M03 A3024 RMK A01 T00801028  RH  046%=      5-min Rain = 0
KWE1 201856Z 14007KT 08/M03 A3024 RMK A01 T00811028  RH  046%=      5-min Rain = 0
KWE1 201857Z 16007KT 08/M03 A3024 RMK A01 T00811032  RH  045%=      5-min Rain = 0
KWE1 201858Z 18008KT 08/M03 A3024 RMK A01 T00811030  RH  046%=      5-min Rain = 0
KWE1 201859Z 17008KT 08/M03 A3024 RMK A01 T00801032  RH  045%=      5-min Rain = 0
KWE1 201900Z 16006KT 08/M03 A3024 RMK A01 T00801033  RH  045%=      5-min Rain = 0
KWE1 201901Z 16007KT 08/M03 A3024 RMK A01 T00811029  RH  046%=      5-min Rain = 0
KWE1 201902Z 15007KT 08/M03 A3024 RMK A01 T00821033  RH  044%=      5-min Rain = 0
KWE1 201903Z 15008KT 08/M03 A3024 RMK A01 T00821034  RH  044%=      5-min Rain = 0
KWE1 201904Z 15008KT 08/M03 A3024 RMK A01 T00821031  RH  045%=      5-min Rain = 0
KWE1 201905Z 15007KT 08/M03 A3024 RMK A01 T00831032  RH  044%=      5-min Rain = 0
KWE1 201906Z 15008KT 08/M03 A3024 RMK A01 T00831030  RH  045%=      5-min Rain = 0
KWE1 201907Z 16006KT 09/M02 A3024 RMK A01 T00851024  RH  046%=      5-min Rain = 0
KWE1 201908Z 17006KT 09/M02 A3024 RMK A01 T00881023  RH  046%=      5-min Rain = 0
KWE1 201909Z 17008KT 09/M03 A3024 RMK A01 T00901025  RH  044%=      5-min Rain = 0
KWE1 201910Z 16007KT 09/M03 A3023 RMK A01 T00901029  RH  043%=      5-min Rain = 0
KWE1 201911Z 15008KT 09/M03 A3023 RMK A01 T00901027  RH  043%=      5-min Rain = 0
KWE1 201912Z 15008KT 09/M03 A3023 RMK A01 T00911027  RH  043%=      5-min Rain = 0
KWE1 201913Z 16008KT 09/M03 A3023 RMK A01 T00931027  RH  043%=      5-min Rain = 0
KWE1 201914Z 17009KT 09/M03 A3023 RMK A01 T00941029  RH  042%=      5-min Rain = 0
KWE1 201915Z 16009KT 09/M03 A3023 RMK A01 T00931032  RH  041%=      5-min Rain = 0
KWE1 201916Z 15006KT 09/M04 A3023 RMK A01 T00911035  RH  041%=      5-min Rain = 0
KWE1 201917Z 16009KT 09/M03 A3023 RMK A01 T00901032  RH  042%=      5-min Rain = 0
KWE1 201918Z 15008KT 09/M03 A3023 RMK A01 T00921028  RH  043%=      5-min Rain = 0
KWE1 201919Z 18008KT 09/M03 A3023 RMK A01 T00931030  RH  042%=      5-min Rain = 0
KWE1 201920Z 18007KT 09/M03 A3023 RMK A01 T00941033  RH  041%=      5-min Rain = 0
KWE1 201921Z 17007KT 09/M03 A3023 RMK A01 T00941029  RH  042%=      5-min Rain = 0
KWE1 201922Z 14006KT 10/M03 A3023 RMK A01 T00951032  RH  041%=      5-min Rain = 0
KWE1 201923Z 15007KT 10/M03 A3023 RMK A01 T00961027  RH  042%=      5-min Rain = 0
KWE1 201924Z 17010KT 10/M03 A3023 RMK A01 T00971031  RH  040%=      5-min Rain = 0
KWE1 201925Z 14008KT 10/M03 A3023 RMK A01 T00961032  RH  040%=      5-min Rain = 0
KWE1 201926Z 16008KT 10/M03 A3023 RMK A01 T00961034  RH  040%=      5-min Rain = 0
KWE1 201927Z 17007KT 10/M03 A3023 RMK A01 T00951033  RH  040%=      5-min Rain = 0
KWE1 201928Z 15005KT 10/M03 A3023 RMK A01 T00961028  RH  042%=      5-min Rain = 0
KWE1 201929Z 15006KT 10/M03 A3023 RMK A01 T00991026  RH  041%=      5-min Rain = 0
KWE1 201930Z 14007KT 10/M03 A3022 RMK A01 T01001027  RH  041%=      5-min Rain = 0
KWE1 201931Z 14007KT 10/M03 A3022 RMK A01 T01001027  RH  041%=      5-min Rain = 0
KWE1 201932Z 14008KT 10/M03 A3022 RMK A01 T01001027  RH  041%=      5-min Rain = 0
KWE1 201933Z 15007KT 10/M03 A3022 RMK A01 T01011027  RH  041%=      5-min Rain = 0
KWE1 201934Z 16005KT 10/M03 A3022 RMK A01 T01011030  RH  040%=      5-min Rain = 0
KWE1 201935Z 16006KT 10/M03 A3022 RMK A01 T01011028  RH  040%=      5-min Rain = 0
KWE1 201936Z 17007KT 10/M03 A3022 RMK A01 T01021026  RH  041%=      5-min Rain = 0
KWE1 201937Z 17007KT 10/M03 A3022 RMK A01 T01021028  RH  040%=      5-min Rain = 0
KWE1 201938Z 18008KT 10/M03 A3022 RMK A01 T01031025  RH  041%=      5-min Rain = 0
KWE1 201939Z 18009KT 10/M02 A3021 RMK A01 T01041023  RH  041%=      5-min Rain = 0
KWE1 201940Z 16008KT 10/M03 A3021 RMK A01 T01041025  RH  040%=      5-min Rain = 0
KWE1 201941Z 16012KT 11/M02 A3021 RMK A01 T01051023  RH  041%=      5-min Rain = 0
KWE1 201942Z 19011KT 11/M03 A3021 RMK A01 T01061027  RH  039%=      5-min Rain = 0
KWE1 201943Z 18009KT 10/M03 A3021 RMK A01 T01041030  RH  039%=      5-min Rain = 0
KWE1 201944Z 16008KT 10/M02 A3021 RMK A01 T01041022  RH  041%=      5-min Rain = 0
KWE1 201945Z 18010KT 11/M02 A3021 RMK A01 T01081020  RH  041%=      5-min Rain = 0
KWE1 201946Z 18012KT 11/M03 A3021 RMK A01 T01091025  RH  039%=      5-min Rain = 0
KWE1 201947Z 19010KT 11/M03 A3021 RMK A01 T01081025  RH  039%=      5-min Rain = 0
KWE1 201948Z 19008KT 11/M03 A302 RMK A01 T01071025  RH  039%=      5-min Rain = 0
KWE1 201949Z 18008KT 11/M02 A302 RMK A01 T01071023  RH  040%=      5-min Rain = 0
KWE1 201950Z 18008KT 11/M02 A302 RMK A01 T01081021  RH  041%=      5-min Rain = 0
KWE1 201951Z 19008KT 11/M03 A302 RMK A01 T01091025  RH  039%=      5-min Rain = 0
KWE1 201952Z 18007KT 11/M02 A302 RMK A01 T01081023  RH  040%=      5-min Rain = 0
KWE1 201953Z 16006KT 11/M02 A302 RMK A01 T01101018  RH  041%=      5-min Rain = 0
KWE1 201954Z 16009KT 11/M02 A302 RMK A01 T01131018  RH  040%=      5-min Rain = 0
KWE1 201955Z 17009KT 11/M02 A302 RMK A01 T01131021  RH  039%=      5-min Rain = 0
KWE1 201956Z 16011KT 11/M02 A3019 RMK A01 T01131022  RH  039%=      5-min Rain = 0
KWE1 201957Z 16010KT 11/M02 A3019 RMK A01 T01131021  RH  039%=      5-min Rain = 0
KWE1 201958Z 17010KT 11/M02 A3019 RMK A01 T01141020  RH  039%=      5-min Rain = 0
KWE1 201959Z 17010KT 11/M02 A3019 RMK A01 T01141024  RH  038%=      5-min Rain = 0
KWE1 202000Z 19009KT 11/M02 A3019 RMK A01 T01141023  RH  038%=      5-min Rain = 0
KWE1 202001Z 16007KT 11/M02 A3019 RMK A01 T01141019  RH  040%=      5-min Rain = 0
KWE1 202002Z 16007KT 12/M02 A3019 RMK A01 T01161015  RH  040%=      5-min Rain = 0
KWE1 202003Z 16008KT 12/M02 A3019 RMK A01 T01171018  RH  039%=      5-min Rain = 0
KWE1 202004Z 17009KT 12/M01 A3019 RMK A01 T01191013  RH  040%=      5-min Rain = 0
KWE1 202005Z 17008KT 12/M02 A3019 RMK A01 T01201017  RH  038%=      5-min Rain = 0
KWE1 202006Z 15007KT 12/M02 A3019 RMK A01 T01201016  RH  039%=      5-min Rain = 0
KWE1 202007Z 16008KT 12/M02 A3019 RMK A01 T01201016  RH  039%=      5-min Rain = 0
KWE1 202008Z 17008KT 12/M02 A3018 RMK A01 T01221016  RH  038%=      5-min Rain = 0
KWE1 202009Z 17007KT 12/M02 A3018 RMK A01 T01201021  RH  037%=      5-min Rain = 0
KWE1 202010Z 17007G13KT 12/M02 A3018 RMK A01 T01191019  RH  038%=      5-min Rain = 0
KWE1 202011Z 18011KT 12/M02 A3018 RMK A01 T01211015  RH  039%=      5-min Rain = 0
KWE1 202012Z 18010KT 12/M02 A3018 RMK A01 T01211017  RH  038%=      5-min Rain = 0
KWE1 202013Z 19009KT 12/M02 A3018 RMK A01 T01201019  RH  038%=      5-min Rain = 0
KWE1 202014Z 19008KT 12/M02 A3018 RMK A01 T01191020  RH  038%=      5-min Rain = 0
KWE1 202015Z 17011KT 12/M02 A3018 RMK A01 T01181020  RH  038%=      5-min Rain = 0
KWE1 202016Z 18008KT 12/M02 A3018 RMK A01 T01181016  RH  039%=      5-min Rain = 0
KWE1 202017Z 17009KT 12/M01 A3018 RMK A01 T01211009  RH  041%=      5-min Rain = 0
KWE1 202018Z 17008KT 12/M01 A3018 RMK A01 T01231012  RH  039%=      5-min Rain = 0
KWE1 202019Z 16009KT 12/M01 A3018 RMK A01 T01241012  RH  039%=      5-min Rain = 0
KWE1 202020Z 17009KT 13/M01 A3017 RMK A01 T01251013  RH  039%=      5-min Rain = 0
KWE1 202021Z 18008KT 13/M01 A3017 RMK A01 T01261011  RH  039%=      5-min Rain = 0
KWE1 202022Z 17009KT 13/M02 A3017 RMK A01 T01261015  RH  038%=      5-min Rain = 0
KWE1 202023Z 16009KT 13/M02 A3017 RMK A01 T01251016  RH  038%=      5-min Rain = 0
KWE1 202024Z 16010KT 12/M02 A3017 RMK A01 T01241018  RH  037%=      5-min Rain = 0
KWE1 202025Z 17012KT 12/M02 A3017 RMK A01 T01231016  RH  038%=      5-min Rain = 0
KWE1 202026Z 18011KT 12/M02 A3017 RMK A01 T01221016  RH  038%=      5-min Rain = 0
KWE1 202027Z 19008KT 12/M01 A3017 RMK A01 T01231011  RH  039%=      5-min Rain = 0
KWE1 202028Z 18008KT 13/M01 A3017 RMK A01 T01251011  RH  039%=      5-min Rain = 0
KWE1 202029Z 18010KT 13/M02 A3017 RMK A01 T01251015  RH  038%=      5-min Rain = 0
KWE1 202030Z 16008KT 12/M02 A3017 RMK A01 T01231015  RH  038%=      5-min Rain = 0
KWE1 202031Z 16009KT 12/M01 A3017 RMK A01 T01231013  RH  039%=      5-min Rain = 0
KWE1 202032Z 17009KT 12/M02 A3017 RMK A01 T01231015  RH  038%=      5-min Rain = 0
KWE1 202033Z 18007KT 12/M02 A3017 RMK A01 T01231016  RH  038%=      5-min Rain = 0
KWE1 202034Z 16006KT 12/M01 A3017 RMK A01 T01221014  RH  039%=      5-min Rain = 0
KWE1 202035Z 16008KT 12/M01 A3017 RMK A01 T01231011  RH  040%=      5-min Rain = 0
KWE1 202036Z 18008KT 13/M01 A3017 RMK A01 T01251009  RH  040%=      5-min Rain = 0
KWE1 202037Z 17009KT 13/M01 A3016 RMK A01 T01251013  RH  038%=      5-min Rain = 0
KWE1 202038Z 18007KT 13/M01 A3016 RMK A01 T01251014  RH  038%=      5-min Rain = 0
KWE1 202039Z 18006KT 13/M01 A3016 RMK A01 T01251009  RH  039%=      5-min Rain = 0
KWE1 202040Z 17010KT 13/M01 A3016 RMK A01 T01281007  RH  039%=      5-min Rain = 0
KWE1 202041Z 17008KT 13/M01 A3016 RMK A01 T01301010  RH  038%=      5-min Rain = 0
KWE1 202042Z 18010KT 13/M01 A3016 RMK A01 T01321010  RH  038%=      5-min Rain = 0
KWE1 202043Z 18011KT 13/M01 A3016 RMK A01 T01321012  RH  037%=      5-min Rain = 0
KWE1 202044Z 18010KT 13/M01 A3016 RMK A01 T01311014  RH  037%=      5-min Rain = 0
KWE1 202045Z 16010KT 13/M01 A3016 RMK A01 T01301014  RH  037%=      5-min Rain = 0
KWE1 202046Z 16009KT 13/M01 A3016 RMK A01 T01301014  RH  037%=      5-min Rain = 0
KWE1 202047Z 19008KT 13/M01 A3016 RMK A01 T01311010  RH  038%=      5-min Rain = 0
KWE1 202048Z 18005KT 13/M01 A3016 RMK A01 T01321009  RH  038%=      5-min Rain = 0
KWE1 202049Z 19006KT 13/M01 A3016 RMK A01 T01331007  RH  038%=      5-min Rain = 0
KWE1 202050Z 19007KT 13/M01 A3016 RMK A01 T01341011  RH  037%=      5-min Rain = 0
KWE1 202051Z 19007KT 14/M01 A3016 RMK A01 T01351008  RH  037%=      5-min Rain = 0
KWE1 202052Z 19008KT 14/M01 A3016 RMK A01 T01371006  RH  037%=      5-min Rain = 0
KWE1 202053Z 18008KT 14/M01 A3016 RMK A01 T01391006  RH  037%=      5-min Rain = 0
KWE1 202054Z 17009KT 14/M01 A3016 RMK A01 T01391006  RH  037%=      5-min Rain = 0
KWE1 202055Z 16009KT 14/M01 A3016 RMK A01 T01391010  RH  036%=      5-min Rain = 0
KWE1 202056Z 17010KT 14/M01 A3016 RMK A01 T01381011  RH  036%=      5-min Rain = 0
KWE1 202057Z 16007KT 14/M01 A3016 RMK A01 T01371012  RH  036%=      5-min Rain = 0
KWE1 202058Z 16005KT 14/M01 A3016 RMK A01 T01361011  RH  036%=      5-min Rain = 0
KWE1 202059Z 17005KT 14/M01 A3016 RMK A01 T01391005  RH  037%=      5-min Rain = 0
KWE1 202100Z 19008KT 14/M01 A3016 RMK A01 T01401005  RH  037%=      5-min Rain = 0
KWE1 202101Z 19008G13KT 14/M01 A3016 RMK A01 T01401007  RH  036%=      5-min Rain = 0
KWE1 202102Z 19011KT 14/M01 A3015 RMK A01 T01391010  RH  036%=      5-min Rain = 0
KWE1 202103Z 18010KT 14/M01 A3015 RMK A01 T01371009  RH  036%=      5-min Rain = 0
KWE1 202104Z 18010KT 14/M01 A3015 RMK A01 T01371012  RH  036%=      5-min Rain = 0
KWE1 202105Z 19007KT 14/M01 A3015 RMK A01 T01361014  RH  035%=      5-min Rain = 0
KWE1 202106Z 19010KT 14/M01 A3015 RMK A01 T01351012  RH  036%=      5-min Rain = 0
KWE1 202107Z 20009KT 14/M01 A3015 RMK A01 T01351009  RH  037%=      5-min Rain = 0
KWE1 202108Z 20010KT 14/M01 A3015 RMK A01 T01351009  RH  037%=      5-min Rain = 0
KWE1 202109Z 19012KT 14/M01 A3015 RMK A01 T01351010  RH  037%=      5-min Rain = 0
KWE1 202110Z 19012KT 14/M01 A3015 RMK A01 T01351011  RH  037%=      5-min Rain = 0
KWE1 202111Z 19011KT 14/M01 A3015 RMK A01 T01351011  RH  036%=      5-min Rain = 0
KWE1 202112Z 19011KT 14/M01 A3015 RMK A01 T01361012  RH  036%=      5-min Rain = 0
KWE1 202113Z 19011KT 14/M01 A3015 RMK A01 T01371011  RH  036%=      5-min Rain = 0
KWE1 202114Z 19012KT 14/M01 A3015 RMK A01 T01381013  RH  035%=      5-min Rain = 0
KWE1 202115Z 19012KT 14/M01 A3015 RMK A01 T01381012  RH  036%=      5-min Rain = 0
KWE1 202116Z 19011KT 14/M01 A3015 RMK A01 T01391014  RH  035%=      5-min Rain = 0
KWE1 202117Z 18011KT 14/M01 A3015 RMK A01 T01391013  RH  035%=      5-min Rain = 0
KWE1 202118Z 18009KT 14/M01 A3015 RMK A01 T01391014  RH  035%=      5-min Rain = 0
KWE1 202119Z 17010KT 14/M01 A3015 RMK A01 T01391011  RH  035%=      5-min Rain = 0
KWE1 202120Z 17010KT 14/M01 A3014 RMK A01 T01411006  RH  036%=      5-min Rain = 0
KWE1 202121Z 19010KT 14/M00 A3014 RMK A01 T01421004  RH  037%=      5-min Rain = 0
KWE1 202122Z 18010KT 14/M01 A3014 RMK A01 T01431010  RH  035%=      5-min Rain = 0
KWE1 202123Z 19010KT 14/M01 A3015 RMK A01 T01431009  RH  035%=      5-min Rain = 0
KWE1 202124Z 19009KT 14/M01 A3014 RMK A01 T01421010  RH  035%=      5-min Rain = 0
KWE1 202125Z 18009KT 14/M01 A3014 RMK A01 T01411005  RH  036%=      5-min Rain = 0
KWE1 202126Z 19008KT 14/M01 A3014 RMK A01 T01401008  RH  036%=      5-min Rain = 0
KWE1 202127Z 19011KT 14/M01 A3014 RMK A01 T01391010  RH  036%=      5-min Rain = 0
KWE1 202128Z 18010KT 14/M01 A3014 RMK A01 T01381009  RH  036%=      5-min Rain = 0
KWE1 202129Z 18009KT 14/M01 A3014 RMK A01 T01371009  RH  037%=      5-min Rain = 0
KWE1 202130Z 18009KT 14/M01 A3014 RMK A01 T01371012  RH  036%=      5-min Rain = 0
KWE1 202131Z 18008KT 14/M01 A3014 RMK A01 T01361014  RH  035%=      5-min Rain = 0
KWE1 202132Z 18008KT 14/M01 A3014 RMK A01 T01361013  RH  036%=      5-min Rain = 0
KWE1 202133Z 18009KT 14/M01 A3014 RMK A01 T01361013  RH  036%=      5-min Rain = 0
KWE1 202134Z 17012KT 14/M01 A3014 RMK A01 T01371013  RH  036%=      5-min Rain = 0
KWE1 202135Z 18011KT 14/M01 A3014 RMK A01 T01371013  RH  035%=      5-min Rain = 0
KWE1 202136Z 16010KT 14/M01 A3014 RMK A01 T01371014  RH  035%=      5-min Rain = 0
KWE1 202137Z 16006KT 14/M01 A3014 RMK A01 T01371014  RH  035%=      5-min Rain = 0
KWE1 202138Z 19008KT 14/M01 A3014 RMK A01 T01361011  RH  036%=      5-min Rain = 0
KWE1 202139Z 18010KT 14/M01 A3014 RMK A01 T01361009  RH  037%=      5-min Rain = 0
KWE1 202140Z 19008KT 14/M01 A3014 RMK A01 T01361007  RH  037%=      5-min Rain = 0
KWE1 202141Z 18008KT 14/M01 A3013 RMK A01 T01361007  RH  037%=      5-min Rain = 0
KWE1 202142Z 17010KT 14/M01 A3013 RMK A01 T01361010  RH  036%=      5-min Rain = 0
KWE1 202143Z 17009KT 14/M01 A3013 RMK A01 T01371012  RH  036%=      5-min Rain = 0
KWE1 202144Z 17009KT 14/M01 A3013 RMK A01 T01371011  RH  036%=      5-min Rain = 0
KWE1 202145Z 17009KT 14/M01 A3013 RMK A01 T01371012  RH  036%=      5-min Rain = 0
KWE1 202146Z 17008KT 14/M01 A3013 RMK A01 T01371009  RH  037%=      5-min Rain = 0
KWE1 202147Z 19009KT 14/M01 A3013 RMK A01 T01371007  RH  037%=      5-min Rain = 0
KWE1 202148Z 18009KT 14/M01 A3013 RMK A01 T01381010  RH  036%=      5-min Rain = 0
KWE1 202149Z 18008KT 14/M01 A3013 RMK A01 T01391011  RH  036%=      5-min Rain = 0
KWE1 202150Z 18008KT 14/M01 A3013 RMK A01 T01391007  RH  036%=      5-min Rain = 0
KWE1 202151Z 18007KT 14/M01 A3013 RMK A01 T01401005  RH  037%=      5-min Rain = 0
KWE1 202152Z 18008KT 14/M01 A3013 RMK A01 T01401008  RH  036%=      5-min Rain = 0
KWE1 202153Z 18008KT 14/M01 A3013 RMK A01 T01391008  RH  036%=      5-min Rain = 0
KWE1 202154Z 18007KT 14/M01 A3013 RMK A01 T01391009  RH  036%=      5-min Rain = 0
KWE1 202155Z 18008KT 14/M01 A3013 RMK A01 T01381011  RH  036%=      5-min Rain = 0
KWE1 202156Z 18009KT 14/M01 A3013 RMK A01 T01371011  RH  036%=      5-min Rain = 0
KWE1 202157Z 18008KT 14/M01 A3013 RMK A01 T01361010  RH  036%=      5-min Rain = 0
KWE1 202158Z 17008KT 14/M01 A3013 RMK A01 T01361010  RH  037%=      5-min Rain = 0
KWE1 202159Z 17007KT 14/M01 A3013 RMK A01 T01361006  RH  038%=      5-min Rain = 0
KWE1 202200Z 18008KT 14/M01 A3013 RMK A01 T01371005  RH  038%=      5-min Rain = 0
KWE1 202201Z 18008KT 14/M01 A3013 RMK A01 T01381009  RH  036%=      5-min Rain = 0
KWE1 202202Z 18008KT 14/M01 A3013 RMK A01 T01381009  RH  036%=      5-min Rain = 0
KWE1 202203Z 18009KT 14/M01 A3013 RMK A01 T01381009  RH  036%=      5-min Rain = 0
KWE1 202204Z 17008KT 14/M01 A3013 RMK A01 T01371010  RH  036%=      5-min Rain = 0
KWE1 202205Z 17007KT 14/M01 A3013 RMK A01 T01371007  RH  037%=      5-min Rain = 0
KWE1 202206Z 17009KT 14/M01 A3013 RMK A01 T01361008  RH  037%=      5-min Rain = 0
KWE1 202207Z 18009KT 14/M01 A3013 RMK A01 T01361008  RH  037%=      5-min Rain = 0
KWE1 202208Z 17009KT 14/M01 A3013 RMK A01 T01351010  RH  037%=      5-min Rain = 0
KWE1 202209Z 18009KT 13/M01 A3013 RMK A01 T01341012  RH  036%=      5-min Rain = 0
KWE1 202210Z 17009KT 13/M01 A3013 RMK A01 T01341011  RH  037%=      5-min Rain = 0
KWE1 202211Z 18008KT 13/M01 A3013 RMK A01 T01331009  RH  037%=      5-min Rain = 0
KWE1 202212Z 17009KT 13/M01 A3013 RMK A01 T01341008  RH  038%=      5-min Rain = 0
KWE1 202213Z 16009KT 13/M01 A3012 RMK A01 T01341009  RH  037%=      5-min Rain = 0
KWE1 202214Z 17009KT 13/M01 A3012 RMK A01 T01331010  RH  037%=      5-min Rain = 0
KWE1 202215Z 15009KT 13/M01 A3012 RMK A01 T01331010  RH  037%=      5-min Rain = 0
KWE1 202216Z 17008KT 13/M01 A3012 RMK A01 T01331010  RH  037%=      5-min Rain = 0
KWE1 202217Z 17007KT 13/M01 A3012 RMK A01 T01331012  RH  037%=      5-min Rain = 0
KWE1 202218Z 16007KT 13/M01 A3012 RMK A01 T01331011  RH  037%=      5-min Rain = 0
KWE1 202219Z 16007KT 13/M01 A3012 RMK A01 T01331009  RH  037%=      5-min Rain = 0
KWE1 202220Z 16008KT 13/M01 A3012 RMK A01 T01321008  RH  038%=      5-min Rain = 0
KWE1 202221Z 17007KT 13/M01 A3013 RMK A01 T01331008  RH  038%=      5-min Rain = 0
KWE1 202222Z 17007KT 13/M01 A3013 RMK A01 T01321009  RH  038%=      5-min Rain = 0
KWE1 202223Z 17007KT 13/M01 A3013 RMK A01 T01321009  RH  038%=      5-min Rain = 0
KWE1 202224Z 17007KT 13/M01 A3012 RMK A01 T01321008  RH  038%=      5-min Rain = 0
KWE1 202225Z 17007KT 13/M01 A3012 RMK A01 T01311005  RH  039%=      5-min Rain = 0
KWE1 202226Z 16008KT 13/M01 A3012 RMK A01 T01311005  RH  039%=      5-min Rain = 0
KWE1 202227Z 16008KT 13/M01 A3012 RMK A01 T01311006  RH  039%=      5-min Rain = 0
KWE1 202228Z 16007KT 13/M01 A3012 RMK A01 T01311009  RH  038%=      5-min Rain = 0
KWE1 202229Z 16008KT 13/M01 A3012 RMK A01 T01311008  RH  038%=      5-min Rain = 0
KWE1 202230Z 16008KT 13/M01 A3012 RMK A01 T01311008  RH  038%=      5-min Rain = 0
KWE1 202231Z 17008KT 13/M01 A3012 RMK A01 T01311007  RH  038%=      5-min Rain = 0
KWE1 202232Z 17007KT 13/M01 A3012 RMK A01 T01311008  RH  038%=      5-min Rain = 0
KWE1 202233Z 16007KT 13/M01 A3012 RMK A01 T01311008  RH  038%=      5-min Rain = 0
KWE1 202234Z 17007KT 13/M01 A3012 RMK A01 T01311007  RH  039%=      5-min Rain = 0
KWE1 202235Z 17008KT 13/M01 A3012 RMK A01 T01311006  RH  039%=      5-min Rain = 0
KWE1 202236Z 17009KT 13/M01 A3012 RMK A01 T01311008  RH  038%=      5-min Rain = 0
KWE1 202237Z 17010KT 13/M01 A3011 RMK A01 T01311009  RH  038%=      5-min Rain = 0
KWE1 202238Z 17011KT 13/M01 A3011 RMK A01 T01321011  RH  037%=      5-min Rain = 0
KWE1 202239Z 17008KT 13/M01 A3011 RMK A01 T01331011  RH  037%=      5-min Rain = 0
KWE1 202240Z 16009KT 13/M01 A3011 RMK A01 T01341008  RH  038%=      5-min Rain = 0
KWE1 202241Z 16008KT 14/M01 A3011 RMK A01 T01351007  RH  037%=      5-min Rain = 0
KWE1 202242Z 17007KT 14/M00 A3011 RMK A01 T01361004  RH  038%=      5-min Rain = 0
KWE1 202243Z 16008KT 14/M00 A3011 RMK A01 T01371003  RH  038%=      5-min Rain = 0
KWE1 202244Z 16008KT 14/M01 A3011 RMK A01 T01381006  RH  037%=      5-min Rain = 0
KWE1 202245Z 16006KT 14/M00 A3011 RMK A01 T01391004  RH  037%=      5-min Rain = 0
KWE1 202246Z 16008KT 14/M01 A3011 RMK A01 T01401005  RH  037%=      5-min Rain = 0
KWE1 202247Z 16008KT 14/M01 A3011 RMK A01 T01411009  RH  036%=      5-min Rain = 0
KWE1 202248Z 16008KT 14/M01 A3011 RMK A01 T01411009  RH  036%=      5-min Rain = 0
KWE1 202249Z 16008KT 14/M01 A3011 RMK A01 T01411007  RH  036%=      5-min Rain = 0
KWE1 202250Z 16009KT 14/M01 A3011 RMK A01 T01411005  RH  037%=      5-min Rain = 0
KWE1 202251Z 17009KT 14/M01 A3011 RMK A01 T01411007  RH  036%=      5-min Rain = 0
KWE1 202252Z 16008KT 14/M01 A3011 RMK A01 T01391009  RH  036%=      5-min Rain = 0
KWE1 202253Z 16009KT 14/M01 A3011 RMK A01 T01381007  RH  037%=      5-min Rain = 0
KWE1 202254Z 17007KT 14/M01 A3011 RMK A01 T01381006  RH  037%=      5-min Rain = 0
KWE1 202255Z 17007KT 14/M00 A3011 RMK A01 T01381004  RH  038%=      5-min Rain = 0
KWE1 202256Z 17006KT 14/M00 A3011 RMK A01 T01391003  RH  038%=      5-min Rain = 0
KWE1 202257Z 17006KT 14/M00 A3011 RMK A01 T01401004  RH  037%=      5-min Rain = 0
KWE1 202258Z 17007KT 14/M01 A3011 RMK A01 T01411005  RH  037%=      5-min Rain = 0
KWE1 202259Z 16007KT 14/M00 A3011 RMK A01 T01411004  RH  037%=      5-min Rain = 0
KWE1 202300Z 16008KT 14/M00 A3011 RMK A01 T01421004  RH  037%=      5-min Rain = 0
KWE1 202301Z 16008KT 14/M01 A3011 RMK A01 T01421005  RH  036%=      5-min Rain = 0
KWE1 202302Z 16007KT 14/M01 A3011 RMK A01 T01421005  RH  036%=      5-min Rain = 0
KWE1 202303Z 16006KT 14/M00 A3011 RMK A01 T01421002  RH  037%=      5-min Rain = 0
KWE1 202304Z 15008KT 14/M00 A3011 RMK A01 T01431004  RH  037%=      5-min Rain = 0
KWE1 202305Z 16009KT 14/M01 A3011 RMK A01 T01421005  RH  036%=      5-min Rain = 0
KWE1 202306Z 16008KT 14/M01 A3011 RMK A01 T01431006  RH  036%=      5-min Rain = 0
KWE1 202307Z 17009KT 14/M01 A3011 RMK A01 T01431006  RH  036%=      5-min Rain = 0
KWE1 202308Z 17008KT 14/M01 A3011 RMK A01 T01431006  RH  036%=      5-min Rain = 0
KWE1 202309Z 16007KT 14/M00 A3011 RMK A01 T01431004  RH  037%=      5-min Rain = 0
KWE1 202310Z 16007KT 14/M00 A3011 RMK A01 T01421004  RH  037%=      5-min Rain = 0
KWE1 202311Z 16009KT 14/M00 A3011 RMK A01 T01431003  RH  037%=      5-min Rain = 0
KWE1 202312Z 16008KT 14/M01 A3011 RMK A01 T01431008  RH  035%=      5-min Rain = 0
KWE1 202313Z 16008KT 14/M00 A3011 RMK A01 T01431004  RH  037%=      5-min Rain = 0
KWE1 202314Z 15008KT 14/M00 A3011 RMK A01 T01431003  RH  037%=      5-min Rain = 0
KWE1 202315Z 15007KT 14/M00 A3011 RMK A01 T01421002  RH  037%=      5-min Rain = 0
KWE1 202316Z 16008KT 14/M00 A3011 RMK A01 T01421002  RH  037%=      5-min Rain = 0
KWE1 202317Z 15008KT 14/M00 A3011 RMK A01 T01421002  RH  037%=      5-min Rain = 0
KWE1 202318Z 15009KT 14/M00 A3011 RMK A01 T01411002  RH  038%=      5-min Rain = 0
KWE1 202319Z 13008KT 14/00 A3011 RMK A01 T014000-0  RH  038%=      5-min Rain = 0
KWE1 202320Z 13007KT 14/00 A3011 RMK A01 T01370001  RH  039%=      5-min Rain = 0
KWE1 202321Z 13007KT 13/00 A3011 RMK A01 T01330003  RH  041%=      5-min Rain = 0
KWE1 202322Z 13006KT 13/00 A3011 RMK A01 T01310004  RH  042%=      5-min Rain = 0
KWE1 202323Z 12007KT 13/00 A3011 RMK A01 T01300004  RH  042%=      5-min Rain = 0
KWE1 202324Z 13008KT 13/00 A3011 RMK A01 T01290002  RH  042%=      5-min Rain = 0
KWE1 202325Z 13010KT 13/M00 A3011 RMK A01 T01281001  RH  041%=      5-min Rain = 0
KWE1 202326Z 13009KT 13/M00 A3011 RMK A01 T01271003  RH  041%=      5-min Rain = 0
KWE1 202327Z 13007KT 13/M00 A3011 RMK A01 T01261001  RH  042%=      5-min Rain = 0
KWE1 202328Z 13008KT 13/00 A3011 RMK A01 T01250001  RH  042%=      5-min Rain = 0
KWE1 202329Z 14008KT 13/00 A3011 RMK A01 T01250001  RH  043%=      5-min Rain = 0
KWE1 202330Z 13008KT 12/00 A301 RMK A01 T01240002  RH  043%=      5-min Rain = 0
KWE1 202331Z 14008KT 12/00 A301 RMK A01 T01230002  RH  043%=      5-min Rain = 0
KWE1 202332Z 14008KT 12/00 A301 RMK A01 T01220002  RH  043%=      5-min Rain = 0
KWE1 202333Z 13007KT 12/00 A301 RMK A01 T01220003  RH  044%=      5-min Rain = 0
KWE1 202334Z 13008KT 12/00 A301 RMK A01 T01210004  RH  044%=      5-min Rain = 0
KWE1 202335Z 14007KT 12/00 A301 RMK A01 T01210004  RH  044%=      5-min Rain = 0
KWE1 202336Z 14007KT 12/00 A3011 RMK A01 T01200004  RH  045%=      5-min Rain = 0
KWE1 202337Z 13008KT 12/00 A3011 RMK A01 T01200001  RH  044%=      5-min Rain = 0
KWE1 202338Z 14007KT 12/00 A3011 RMK A01 T01200001  RH  044%=      5-min Rain = 0
KWE1 202339Z 14007KT 12/00 A3011 RMK A01 T01200002  RH  044%=      5-min Rain = 0
KWE1 202340Z 14007KT 12/00 A301 RMK A01 T01190001  RH  044%=      5-min Rain = 0
KWE1 202341Z 14007KT 12/00 A301 RMK A01 T01190001  RH  044%=      5-min Rain = 0
KWE1 202342Z 14007KT 12/00 A301 RMK A01 T01180001  RH  045%=      5-min Rain = 0
KWE1 202343Z 15006KT 12/00 A301 RMK A01 T01170001  RH  045%=      5-min Rain = 0
KWE1 202344Z 15006KT 12/00 A301 RMK A01 T01170002  RH  045%=      5-min Rain = 0
KWE1 202345Z 15007KT 12/00 A3011 RMK A01 T01160002  RH  045%=      5-min Rain = 0
KWE1 202346Z 14007KT 12/00 A3011 RMK A01 T01160003  RH  046%=      5-min Rain = 0
KWE1 202347Z 14009KT 12/00 A3011 RMK A01 T01160002  RH  046%=      5-min Rain = 0
KWE1 202348Z 14008KT 12/00 A3011 RMK A01 T01160000  RH  045%=      5-min Rain = 0
KWE1 202349Z 14008KT 12/00 A3011 RMK A01 T01150002  RH  046%=      5-min Rain = 0
KWE1 202350Z 14007KT 11/00 A3011 RMK A01 T01140002  RH  046%=      5-min Rain = 0
KWE1 202351Z 14008KT 11/00 A3011 RMK A01 T01130002  RH  046%=      5-min Rain = 0
KWE1 202352Z 14008KT 11/00 A3011 RMK A01 T01130000  RH  046%=      5-min Rain = 0
KWE1 202353Z 14006KT 11/00 A3011 RMK A01 T01120001  RH  046%=      5-min Rain = 0
KWE1 202354Z 14007KT 11/00 A3011 RMK A01 T01110002  RH  047%=      5-min Rain = 0
KWE1 202355Z 14007KT 11/00 A3011 RMK A01 T01100002  RH  047%=      5-min Rain = 0
KWE1 202356Z 15006KT 11/00 A301 RMK A01 T01100001  RH  047%=      5-min Rain = 0
KWE1 202357Z 14007KT 11/00 A301 RMK A01 T01100002  RH  047%=      5-min Rain = 0
KWE1 202358Z 14007KT 11/00 A301 RMK A01 T01100002  RH  047%=      5-min Rain = 0
KWE1 202359Z 15006KT 11/00 A301 RMK A01 T01090002  RH  048%=      5-min Rain = 0
KWE1 210000Z 15006KT 11/00 A3011 RMK A01 T01080002  RH  048%=      5-min Rain = 0
KWE1 210001Z 15006KT 11/00 A3011 RMK A01 T01080002  RH  048%=      5-min Rain = 0
KWE1 210002Z 16005KT 11/00 A3011 RMK A01 T01080002  RH  048%=      5-min Rain = 0
KWE1 210003Z 16006KT 11/00 A3011 RMK A01 T01080002  RH  048%=      5-min Rain = 0
KWE1 210004Z 15006KT 11/00 A3011 RMK A01 T01080002  RH  048%=      5-min Rain = 0
KWE1 210005Z 15006KT 11/00 A3011 RMK A01 T01080002  RH  048%=      5-min Rain = 0
KWE1 210006Z 15006KT 11/00 A3011 RMK A01 T01080002  RH  048%=      5-min Rain = 0
KWE1 210007Z 15005KT 11/00 A3011 RMK A01 T01080002  RH  048%=      5-min Rain = 0
KWE1 210008Z 15005KT 11/00 A3011 RMK A01 T01070002  RH  048%=      5-min Rain = 0
KWE1 210009Z 15005KT 11/00 A3011 RMK A01 T01070002  RH  048%=      5-min Rain = 0
KWE1 210010Z 15006KT 11/00 A3011 RMK A01 T01070003  RH  048%=      5-min Rain = 0
KWE1 210011Z 15005KT 11/00 A3011 RMK A01 T01060002  RH  049%=      5-min Rain = 0
KWE1 210012Z 15006KT 11/00 A3011 RMK A01 T01060003  RH  049%=      5-min Rain = 0
KWE1 210013Z 15006KT 11/00 A3011 RMK A01 T01060003  RH  049%=      5-min Rain = 0
KWE1 210014Z 15007KT 11/00 A3011 RMK A01 T01050003  RH  049%=      5-min Rain = 0
KWE1 210015Z 15007KT 10/00 A3011 RMK A01 T01040003  RH  049%=      5-min Rain = 0
KWE1 210016Z 15007KT 10/00 A3011 RMK A01 T01040002  RH  049%=      5-min Rain = 0
KWE1 210017Z 15006KT 11/00 A3011 RMK A01 T01050002  RH  049%=      5-min Rain = 0
KWE1 210018Z 16007KT 11/00 A3011 RMK A01 T01050004  RH  050%=      5-min Rain = 0
KWE1 210019Z 15006KT 10/00 A3011 RMK A01 T01040004  RH  050%=      5-min Rain = 0
KWE1 210020Z 15008KT 10/01 A3011 RMK A01 T01030005  RH  051%=      5-min Rain = 0
KWE1 210021Z 15007KT 10/00 A3011 RMK A01 T01020003  RH  050%=      5-min Rain = 0
KWE1 210022Z 15008KT 10/00 A3011 RMK A01 T01020003  RH  050%=      5-min Rain = 0
KWE1 210023Z 16007KT 10/00 A3011 RMK A01 T01020002  RH  050%=      5-min Rain = 0
KWE1 210024Z 15008KT 10/00 A3011 RMK A01 T01030003  RH  050%=      5-min Rain = 0
KWE1 210025Z 17009KT 10/00 A3011 RMK A01 T01020002  RH  050%=      5-min Rain = 0
KWE1 210026Z 17007KT 10/00 A3011 RMK A01 T01040001  RH  049%=      5-min Rain = 0
KWE1 210027Z 16007KT 11/00 A3011 RMK A01 T01050001  RH  049%=      5-min Rain = 0
KWE1 210028Z 16007KT 11/00 A3011 RMK A01 T01050001  RH  048%=      5-min Rain = 0
KWE1 210029Z 16007KT 11/00 A3011 RMK A01 T01050000  RH  048%=      5-min Rain = 0
KWE1 210030Z 16007KT 11/00 A3011 RMK A01 T01060000  RH  048%=      5-min Rain = 0
KWE1 210031Z 16007KT 11/00 A3011 RMK A01 T01060001  RH  048%=      5-min Rain = 0
KWE1 210032Z 16007KT 11/00 A3011 RMK A01 T01050001  RH  049%=      5-min Rain = 0
KWE1 210033Z 15007KT 10/00 A3011 RMK A01 T01040002  RH  049%=      5-min Rain = 0
KWE1 210034Z 15006KT 10/00 A3011 RMK A01 T01020002  RH  050%=      5-min Rain = 0
KWE1 210035Z 16006KT 10/00 A3011 RMK A01 T01010002  RH  050%=      5-min Rain = 0
KWE1 210036Z 15007KT 10/00 A3011 RMK A01 T00990002  RH  051%=      5-min Rain = 0
KWE1 210037Z 15007KT 10/00 A3011 RMK A01 T00980002  RH  051%=      5-min Rain = 0
KWE1 210038Z 15009KT 10/00 A301 RMK A01 T00980001  RH  051%=      5-min Rain = 0
KWE1 210039Z 15008KT 10/00 A301 RMK A01 T00980000  RH  051%=      5-min Rain = 0
KWE1 210040Z 15007KT 10/00 A301 RMK A01 T00980001  RH  051%=      5-min Rain = 0
KWE1 210041Z 15007KT 10/00 A301 RMK A01 T00980002  RH  051%=      5-min Rain = 0
KWE1 210042Z 15008KT 10/00 A301 RMK A01 T00980002  RH  051%=      5-min Rain = 0
KWE1 210043Z 16006KT 10/00 A301 RMK A01 T00970002  RH  051%=      5-min Rain = 0
KWE1 210044Z 15007KT 10/00 A301 RMK A01 T00970002  RH  052%=      5-min Rain = 0
KWE1 210045Z 15007KT 10/00 A301 RMK A01 T00960002  RH  052%=      5-min Rain = 0
KWE1 210046Z 15007KT 10/00 A301 RMK A01 T00960001  RH  051%=      5-min Rain = 0
KWE1 210047Z 16008KT 10/00 A301 RMK A01 T00970001  RH  051%=      5-min Rain = 0
KWE1 210048Z 16008KT 10/00 A301 RMK A01 T00970001  RH  051%=      5-min Rain = 0
KWE1 210049Z 16008KT 10/00 A301 RMK A01 T00980000  RH  051%=      5-min Rain = 0
KWE1 210050Z 16009KT 10/00 A301 RMK A01 T009800-0  RH  051%=      5-min Rain = 0
KWE1 210051Z 16008KT 10/M00 A3011 RMK A01 T00991001  RH  050%=      5-min Rain = 0
KWE1 210052Z 16008KT 10/00 A3011 RMK A01 T01000001  RH  050%=      5-min Rain = 0
KWE1 210053Z 16008KT 10/00 A3011 RMK A01 T01000000  RH  050%=      5-min Rain = 0
KWE1 210054Z 16009KT 10/00 A3011 RMK A01 T01000000  RH  050%=      5-min Rain = 0
KWE1 210055Z 16007KT 10/00 A3011 RMK A01 T00990000  RH  050%=      5-min Rain = 0
KWE1 210056Z 16008KT 10/00 A301 RMK A01 T00990000  RH  050%=      5-min Rain = 0
KWE1 210057Z 16007KT 10/00 A301 RMK A01 T00980001  RH  051%=      5-min Rain = 0
KWE1 210058Z 16009KT 10/00 A301 RMK A01 T00970001  RH  051%=      5-min Rain = 0
KWE1 210059Z 16009KT 10/00 A301 RMK A01 T009700-0  RH  051%=      5-min Rain = 0
KWE1 210100Z 16008KT 10/00 A301 RMK A01 T00970000  RH  051%=      5-min Rain = 0
KWE1 210101Z 15008KT 10/00 A301 RMK A01 T00970000  RH  051%=      5-min Rain = 0
KWE1 210102Z 14006KT 10/00 A301 RMK A01 T00970002  RH  051%=      5-min Rain = 0
KWE1 210103Z 15008KT 10/00 A301 RMK A01 T00950002  RH  052%=      5-min Rain = 0
KWE1 210104Z 15008KT 09/00 A301 RMK A01 T00920001  RH  053%=      5-min Rain = 0
KWE1 210105Z 14008KT 09/00 A301 RMK A01 T00910001  RH  053%=      5-min Rain = 0
KWE1 210106Z 15008KT 09/00 A301 RMK A01 T009000-0  RH  053%=      5-min Rain = 0
KWE1 210107Z 15009KT 09/M00 A301 RMK A01 T00891001  RH  053%=      5-min Rain = 0
KWE1 210108Z 14009KT 09/M00 A301 RMK A01 T00891001  RH  053%=      5-min Rain = 0
KWE1 210109Z 14009KT 09/M00 A301 RMK A01 T00891001  RH  053%=      5-min Rain = 0
KWE1 210110Z 14008KT 09/M00 A301 RMK A01 T00881001  RH  053%=      5-min Rain = 0
KWE1 210111Z 14007KT 09/M00 A301 RMK A01 T00871001  RH  054%=      5-min Rain = 0
KWE1 210112Z 14008KT 09/M00 A301 RMK A01 T00861002  RH  054%=      5-min Rain = 0
KWE1 210113Z 14008KT 09/M00 A301 RMK A01 T00851002  RH  054%=      5-min Rain = 0
KWE1 210114Z 14008KT 08/M00 A301 RMK A01 T00841002  RH  055%=      5-min Rain = 0
KWE1 210115Z 14008KT 08/M00 A301 RMK A01 T00831002  RH  055%=      5-min Rain = 0
KWE1 210116Z 14007KT 08/M00 A301 RMK A01 T00831002  RH  055%=      5-min Rain = 0
KWE1 210117Z 14008KT 08/M00 A301 RMK A01 T00831002  RH  055%=      5-min Rain = 0
KWE1 210118Z 14008KT 08/M00 A301 RMK A01 T00821002  RH  055%=      5-min Rain = 0
KWE1 210119Z 14008KT 08/M00 A301 RMK A01 T00821002  RH  055%=      5-min Rain = 0
KWE1 210120Z 14008KT 08/M00 A301 RMK A01 T00821002  RH  055%=      5-min Rain = 0
KWE1 210121Z 14008KT 08/M00 A301 RMK A01 T00821002  RH  055%=      5-min Rain = 0
KWE1 210122Z 14009KT 08/M00 A301 RMK A01 T00821004  RH  055%=      5-min Rain = 0
KWE1 210123Z 14009KT 08/M00 A301 RMK A01 T00831004  RH  054%=      5-min Rain = 0
KWE1 210124Z 14009KT 08/M01 A301 RMK A01 T00841005  RH  054%=      5-min Rain = 0
KWE1 210125Z 14009KT 08/M01 A301 RMK A01 T00841005  RH  053%=      5-min Rain = 0
KWE1 210126Z 14010KT 08/M01 A301 RMK A01 T00841006  RH  053%=      5-min Rain = 0
KWE1 210127Z 14010KT 09/M01 A301 RMK A01 T00851008  RH  052%=      5-min Rain = 0
KWE1 210128Z 14009KT 09/M01 A301 RMK A01 T00861008  RH  051%=      5-min Rain = 0
KWE1 210129Z 14009KT 09/M01 A301 RMK A01 T00861008  RH  051%=      5-min Rain = 0
KWE1 210130Z 14009KT 09/M01 A301 RMK A01 T00861008  RH  052%=      5-min Rain = 0
KWE1 210131Z 14009KT 09/M01 A301 RMK A01 T00851008  RH  052%=      5-min Rain = 0
KWE1 210132Z 14010KT 08/M01 A301 RMK A01 T00841008  RH  052%=      5-min Rain = 0
KWE1 210133Z 14011KT 08/M01 A301 RMK A01 T00841009  RH  052%=      5-min Rain = 0
KWE1 210134Z 15011KT 08/M01 A301 RMK A01 T00841011  RH  051%=      5-min Rain = 0
KWE1 210135Z 14010KT 09/M01 A301 RMK A01 T00851010  RH  051%=      5-min Rain = 0
KWE1 210136Z 14011KT 09/M01 A301 RMK A01 T00851010  RH  051%=      5-min Rain = 0
KWE1 210137Z 14011KT 08/M01 A301 RMK A01 T00841010  RH  051%=      5-min Rain = 0
KWE1 210138Z 15010KT 08/M01 A301 RMK A01 T00841010  RH  051%=      5-min Rain = 0
KWE1 210139Z 15010KT 08/M01 A301 RMK A01 T00841011  RH  051%=      5-min Rain = 0
KWE1 210140Z 15010KT 08/M01 A301 RMK A01 T00841011  RH  051%=      5-min Rain = 0
KWE1 210141Z 15010KT 08/M01 A301 RMK A01 T00831010  RH  052%=      5-min Rain = 0
KWE1 210142Z 15010KT 08/M01 A301 RMK A01 T00831010  RH  052%=      5-min Rain = 0
KWE1 210143Z 15010KT 08/M01 A301 RMK A01 T00831010  RH  052%=      5-min Rain = 0
KWE1 210144Z 15010KT 08/M01 A301 RMK A01 T00821010  RH  052%=      5-min Rain = 0
KWE1 210145Z 15009KT 08/M01 A301 RMK A01 T00821010  RH  052%=      5-min Rain = 0
KWE1 210146Z 15009KT 08/M01 A301 RMK A01 T00811010  RH  053%=      5-min Rain = 0
KWE1 210147Z 15009KT 08/M01 A301 RMK A01 T00811010  RH  053%=      5-min Rain = 0
KWE1 210148Z 15010KT 08/M01 A301 RMK A01 T00811010  RH  053%=      5-min Rain = 0
KWE1 210149Z 15011KT 08/M01 A301 RMK A01 T00801010  RH  053%=      5-min Rain = 0
KWE1 210150Z 15011KT 08/M01 A3009 RMK A01 T00811010  RH  053%=      5-min Rain = 0
KWE1 210151Z 15011KT 08/M01 A3009 RMK A01 T00811011  RH  052%=      5-min Rain = 0
KWE1 210152Z 15011KT 08/M01 A3009 RMK A01 T00811011  RH  053%=      5-min Rain = 0
KWE1 210153Z 15012KT 08/M01 A3009 RMK A01 T00811011  RH  052%=      5-min Rain = 0
KWE1 210154Z 15012KT 08/M01 A3009 RMK A01 T00811011  RH  052%=      5-min Rain = 0
KWE1 210155Z 15012KT 08/M01 A3009 RMK A01 T00811011  RH  052%=      5-min Rain = 0
KWE1 210156Z 15011KT 08/M01 A3009 RMK A01 T00821011  RH  052%=      5-min Rain = 0
KWE1 210157Z 15012KT 08/M01 A3009 RMK A01 T00811011  RH  052%=      5-min Rain = 0
KWE1 210158Z 15012KT 08/M01 A3009 RMK A01 T00811011  RH  052%=      5-min Rain = 0
KWE1 210159Z 15011KT 08/M01 A3009 RMK A01 T00811011  RH  052%=      5-min Rain = 0
KWE1 210200Z 15011KT 08/M01 A3009 RMK A01 T00811011  RH  052%=      5-min Rain = 0
KWE1 210201Z 15011KT 08/M01 A3009 RMK A01 T00811011  RH  052%=      5-min Rain = 0
KWE1 210202Z 15009KT 08/M01 A3009 RMK A01 T00811011  RH  052%=      5-min Rain = 0
KWE1 210203Z 15010KT 08/M01 A3009 RMK A01 T00811010  RH  053%=      5-min Rain = 0
KWE1 210204Z 15011KT 08/M01 A3009 RMK A01 T00801010  RH  053%=      5-min Rain = 0
KWE1 210205Z 15011KT 08/M01 A3009 RMK A01 T00801010  RH  053%=      5-min Rain = 0
KWE1 210206Z 15010KT 08/M01 A3009 RMK A01 T00801011  RH  053%=      5-min Rain = 0
KWE1 210207Z 15009KT 08/M01 A3009 RMK A01 T00801010  RH  053%=      5-min Rain = 0
KWE1 210208Z 15010KT 08/M01 A3009 RMK A01 T00791010  RH  053%=      5-min Rain = 0
KWE1 210209Z 15011KT 08/M01 A3009 RMK A01 T00791009  RH  054%=      5-min Rain = 0
KWE1 210210Z 15010KT 08/M01 A3009 RMK A01 T00781010  RH  054%=      5-min Rain = 0
KWE1 210211Z 15010KT 08/M01 A3009 RMK A01 T00781009  RH  054%=      5-min Rain = 0
KWE1 210212Z 15010KT 08/M01 A3009 RMK A01 T00771009  RH  054%=      5-min Rain = 0
KWE1 210213Z 15010KT 08/M01 A3009 RMK A01 T00771009  RH  054%=      5-min Rain = 0
KWE1 210214Z 15010KT 08/M01 A3009 RMK A01 T00771009  RH  055%=      5-min Rain = 0
KWE1 210215Z 15010KT 08/M01 A3009 RMK A01 T00771009  RH  055%=      5-min Rain = 0
KWE1 210216Z 15011KT 08/M01 A3009 RMK A01 T00771009  RH  054%=      5-min Rain = 0
KWE1 210217Z 15011KT 08/M01 A3009 RMK A01 T00771010  RH  054%=      5-min Rain = 0
KWE1 210218Z 15010KT 08/M01 A3009 RMK A01 T00771010  RH  054%=      5-min Rain = 0
KWE1 210219Z 15010KT 08/M01 A3009 RMK A01 T00771010  RH  054%=      5-min Rain = 0
KWE1 210220Z 15010KT 08/M01 A3009 RMK A01 T00771010  RH  054%=      5-min Rain = 0
KWE1 210221Z 15012KT 08/M01 A3009 RMK A01 T00771010  RH  054%=      5-min Rain = 0
KWE1 210222Z 15010KT 08/M01 A3009 RMK A01 T00771011  RH  054%=      5-min Rain = 0
KWE1 210223Z 15010KT 08/M01 A3009 RMK A01 T00781011  RH  054%=      5-min Rain = 0
KWE1 210224Z 15010KT 08/M01 A3009 RMK A01 T00781010  RH  054%=      5-min Rain = 0
KWE1 210225Z 15011KT 08/M01 A3009 RMK A01 T00771010  RH  054%=      5-min Rain = 0
KWE1 210226Z 15011KT 08/M01 A3009 RMK A01 T00771010  RH  054%=      5-min Rain = 0
KWE1 210227Z 15011KT 08/M01 A3009 RMK A01 T00771010  RH  054%=      5-min Rain = 0
KWE1 210228Z 15011KT 08/M01 A3009 RMK A01 T00761010  RH  054%=      5-min Rain = 0
KWE1 210229Z 15012KT 08/M01 A3009 RMK A01 T00761010  RH  054%=      5-min Rain = 0
KWE1 210230Z 15009KT 08/M01 A3009 RMK A01 T00761010  RH  054%=      5-min Rain = 0
KWE1 210231Z 15011G16KT 08/M01 A3009 RMK A01 T00761010  RH  054%=      5-min Rain = 0
KWE1 210232Z 15012KT 08/M01 A3009 RMK A01 T00761011  RH  054%=      5-min Rain = 0
KWE1 210233Z 15011KT 08/M01 A3009 RMK A01 T00771012  RH  054%=      5-min Rain = 0
KWE1 210234Z 15012KT 08/M01 A3009 RMK A01 T00771011  RH  054%=      5-min Rain = 0
KWE1 210235Z 15010KT 08/M01 A3009 RMK A01 T00761012  RH  054%=      5-min Rain = 0
KWE1 210236Z 15011KT 08/M01 A3009 RMK A01 T00761011  RH  054%=      5-min Rain = 0
KWE1 210237Z 15010KT 07/M01 A3009 RMK A01 T00741012  RH  054%=      5-min Rain = 0
KWE1 210238Z 15010KT 07/M01 A3009 RMK A01 T00741012  RH  055%=      5-min Rain = 0
KWE1 210239Z 15009KT 07/M01 A3008 RMK A01 T00741011  RH  055%=      5-min Rain = 0
KWE1 210240Z 16012KT 07/M01 A3008 RMK A01 T00731012  RH  055%=      5-min Rain = 0
KWE1 210241Z 15011KT 07/M01 A3008 RMK A01 T00731012  RH  055%=      5-min Rain = 0
KWE1 210242Z 15010KT 07/M01 A3008 RMK A01 T00741012  RH  054%=      5-min Rain = 0
KWE1 210243Z 15010KT 07/M01 A3008 RMK A01 T00731012  RH  055%=      5-min Rain = 0
KWE1 210244Z 15011KT 07/M01 A3008 RMK A01 T00721011  RH  055%=      5-min Rain = 0
KWE1 210245Z 15011KT 07/M01 A3008 RMK A01 T00721011  RH  056%=      5-min Rain = 0
KWE1 210246Z 15011KT 07/M01 A3008 RMK A01 T00711012  RH  055%=      5-min Rain = 0
KWE1 210247Z 15010KT 07/M01 A3008 RMK A01 T00721011  RH  056%=      5-min Rain = 0
KWE1 210248Z 15009KT 07/M01 A3008 RMK A01 T00711011  RH  056%=      5-min Rain = 0
KWE1 210249Z 15011KT 07/M01 A3008 RMK A01 T00711011  RH  056%=      5-min Rain = 0
KWE1 210250Z 15009KT 07/M01 A3008 RMK A01 T00701011  RH  056%=      5-min Rain = 0
KWE1 210251Z 15010G15KT 07/M01 A3008 RMK A01 T00691011  RH  057%=      5-min Rain = 0
KWE1 210252Z 15011KT 07/M01 A3008 RMK A01 T00691011  RH  057%=      5-min Rain = 0
KWE1 210253Z 15010KT 07/M01 A3008 RMK A01 T00691012  RH  056%=      5-min Rain = 0
KWE1 210254Z 15010KT 07/M01 A3008 RMK A01 T00691011  RH  057%=      5-min Rain = 0
KWE1 210255Z 14011KT 07/M01 A3008 RMK A01 T00681011  RH  057%=      5-min Rain = 0
KWE1 210256Z 14010KT 07/M01 A3008 RMK A01 T00671011  RH  057%=      5-min Rain = 0
KWE1 210257Z 14010KT 07/M01 A3008 RMK A01 T00661011  RH  058%=      5-min Rain = 0
KWE1 210258Z 14010KT 07/M01 A3008 RMK A01 T00661011  RH  058%=      5-min Rain = 0
KWE1 210259Z 14011KT 07/M01 A3008 RMK A01 T00661011  RH  058%=      5-min Rain = 0
KWE1 210300Z 14012KT 07/M01 A3008 RMK A01 T00661011  RH  058%=      5-min Rain = 0
KWE1 210301Z 14011KT 07/M01 A3008 RMK A01 T00651011  RH  058%=      5-min Rain = 0
KWE1 210302Z 14012KT 06/M01 A3008 RMK A01 T00641011  RH  059%=      5-min Rain = 0
KWE1 210303Z 14012KT 06/M01 A3008 RMK A01 T00641011  RH  059%=      5-min Rain = 0
KWE1 210304Z 14013KT 06/M01 A3008 RMK A01 T00641011  RH  059%=      5-min Rain = 0
KWE1 210305Z 15012KT 06/M01 A3008 RMK A01 T00631011  RH  059%=      5-min Rain = 0
KWE1 210306Z 14010KT 06/M01 A3008 RMK A01 T00631011  RH  059%=      5-min Rain = 0
KWE1 210307Z 15010KT 06/M01 A3008 RMK A01 T00621011  RH  059%=      5-min Rain = 0
KWE1 210308Z 14011KT 06/M01 A3008 RMK A01 T00621011  RH  059%=      5-min Rain = 0
KWE1 210309Z 14010KT 06/M01 A3008 RMK A01 T00621011  RH  059%=      5-min Rain = 0
KWE1 210310Z 14011KT 06/M01 A3008 RMK A01 T00621011  RH  059%=      5-min Rain = 0
KWE1 210311Z 15011KT 06/M01 A3008 RMK A01 T00621011  RH  059%=      5-min Rain = 0
KWE1 210312Z 14011KT 06/M01 A3008 RMK A01 T00621011  RH  059%=      5-min Rain = 0
KWE1 210313Z 15010KT 06/M01 A3008 RMK A01 T00621012  RH  059%=      5-min Rain = 0
KWE1 210314Z 14011KT 06/M01 A3008 RMK A01 T00621011  RH  059%=      5-min Rain = 0
KWE1 210315Z 14012KT 06/M01 A3008 RMK A01 T00621012  RH  059%=      5-min Rain = 0
KWE1 210316Z 14012KT 06/M01 A3008 RMK A01 T00621013  RH  059%=      5-min Rain = 0
KWE1 210317Z 14011KT 06/M01 A3008 RMK A01 T00621013  RH  059%=      5-min Rain = 0
KWE1 210318Z 15011KT 06/M01 A3008 RMK A01 T00631012  RH  059%=      5-min Rain = 0
KWE1 210319Z 15012KT 06/M01 A3008 RMK A01 T00631012  RH  059%=      5-min Rain = 0
KWE1 210320Z 14012KT 06/M01 A3008 RMK A01 T00631013  RH  058%=      5-min Rain = 0
KWE1 210321Z 14013KT 06/M01 A3007 RMK A01 T00631014  RH  058%=      5-min Rain = 0
KWE1 210322Z 15012KT 06/M01 A3007 RMK A01 T00641014  RH  058%=      5-min Rain = 0
KWE1 210323Z 15012KT 06/M01 A3007 RMK A01 T00631013  RH  058%=      5-min Rain = 0
KWE1 210324Z 15011KT 06/M01 A3007 RMK A01 T00631013  RH  058%=      5-min Rain = 0
KWE1 210325Z 15012KT 06/M01 A3007 RMK A01 T00631013  RH  058%=      5-min Rain = 0
KWE1 210326Z 15012KT 06/M01 A3007 RMK A01 T00631014  RH  058%=      5-min Rain = 0
KWE1 210327Z 15012KT 06/M01 A3007 RMK A01 T00631014  RH  058%=      5-min Rain = 0
KWE1 210328Z 15011KT 06/M01 A3007 RMK A01 T00621014  RH  058%=      5-min Rain = 0
KWE1 210329Z 15012KT 06/M02 A3007 RMK A01 T00621015  RH  058%=      5-min Rain = 0
KWE1 210330Z 14012KT 06/M01 A3007 RMK A01 T00631014  RH  058%=      5-min Rain = 0
KWE1 210331Z 15012KT 06/M01 A3007 RMK A01 T00621014  RH  058%=      5-min Rain = 0
KWE1 210332Z 14012KT 06/M01 A3007 RMK A01 T00621014  RH  058%=      5-min Rain = 0
KWE1 210333Z 15012KT 06/M02 A3007 RMK A01 T00621015  RH  058%=      5-min Rain = 0
KWE1 210334Z 14012KT 06/M02 A3007 RMK A01 T00621015  RH  058%=      5-min Rain = 0
KWE1 210335Z 14012KT 06/M01 A3007 RMK A01 T00611014  RH  058%=      5-min Rain = 0
KWE1 210336Z 14012KT 06/M02 A3007 RMK A01 T00611015  RH  058%=      5-min Rain = 0
KWE1 210337Z 15013KT 06/M02 A3007 RMK A01 T00611015  RH  058%=      5-min Rain = 0
KWE1 210338Z 14011KT 06/M02 A3007 RMK A01 T00611016  RH  058%=      5-min Rain = 0
KWE1 210339Z 14012KT 06/M02 A3007 RMK A01 T00611015  RH  058%=      5-min Rain = 0
KWE1 210340Z 14012KT 06/M02 A3007 RMK A01 T00601015  RH  058%=      5-min Rain = 0
KWE1 210341Z 15012KT 06/M02 A3007 RMK A01 T00601015  RH  059%=      5-min Rain = 0
KWE1 210342Z 15012KT 06/M02 A3006 RMK A01 T00601015  RH  058%=      5-min Rain = 0
KWE1 210343Z 14013KT 06/M02 A3006 RMK A01 T00601016  RH  058%=      5-min Rain = 0
KWE1 210344Z 15012KT 06/M02 A3006 RMK A01 T00601016  RH  058%=      5-min Rain = 0
KWE1 210345Z 15012KT 06/M02 A3006 RMK A01 T00601016  RH  058%=      5-min Rain = 0
KWE1 210346Z 14013KT 06/M02 A3006 RMK A01 T00601016  RH  058%=      5-min Rain = 0
KWE1 210347Z 15012KT 06/M02 A3006 RMK A01 T00601016  RH  058%=      5-min Rain = 0
KWE1 210348Z 15012KT 06/M02 A3006 RMK A01 T00591016  RH  058%=      5-min Rain = 0
KWE1 210349Z 15012KT 06/M02 A3006 RMK A01 T00591016  RH  059%=      5-min Rain = 0
KWE1 210350Z 15012KT 06/M02 A3006 RMK A01 T00591016  RH  059%=      5-min Rain = 0
KWE1 210351Z 15012KT 06/M02 A3006 RMK A01 T00591016  RH  058%=      5-min Rain = 0
KWE1 210352Z 14013KT 06/M02 A3006 RMK A01 T00591016  RH  058%=      5-min Rain = 0
KWE1 210353Z 15012KT 06/M02 A3006 RMK A01 T00591017  RH  058%=      5-min Rain = 0
KWE1 210354Z 15012KT 06/M02 A3006 RMK A01 T00591017  RH  058%=      5-min Rain = 0
KWE1 210355Z 15011KT 06/M02 A3006 RMK A01 T00591017  RH  058%=      5-min Rain = 0
KWE1 210356Z 15013KT 06/M02 A3006 RMK A01 T00591017  RH  058%=      5-min Rain = 0
KWE1 210357Z 15012KT 06/M02 A3006 RMK A01 T00591018  RH  058%=      5-min Rain = 0
KWE1 210358Z 15013KT 06/M02 A3006 RMK A01 T00601018  RH  058%=      5-min Rain = 0
KWE1 210359Z 15012KT 06/M02 A3006 RMK A01 T00601017  RH  058%=      5-min Rain = 0
KWE1 210400Z 15012KT 06/M02 A3006 RMK A01 T00601018  RH  058%=      5-min Rain = 0
KWE1 210401Z 15012KT 06/M02 A3006 RMK A01 T00601017  RH  058%=      5-min Rain = 0
KWE1 210402Z 15012KT 06/M02 A3006 RMK A01 T00591018  RH  057%=      5-min Rain = 0
KWE1 210403Z 15013KT 06/M02 A3005 RMK A01 T00601018  RH  057%=      5-min Rain = 0
KWE1 210404Z 15013KT 06/M02 A3006 RMK A01 T00601019  RH  057%=      5-min Rain = 0
KWE1 210405Z 15013KT 06/M02 A3005 RMK A01 T00601019  RH  057%=      5-min Rain = 0
KWE1 210406Z 15013KT 06/M02 A3005 RMK A01 T00601019  RH  057%=      5-min Rain = 0
KWE1 210407Z 15013KT 06/M02 A3005 RMK A01 T00601019  RH  057%=      5-min Rain = 0
KWE1 210408Z 15013KT 06/M02 A3005 RMK A01 T00591019  RH  057%=      5-min Rain = 0
KWE1 210409Z 15013KT 06/M02 A3005 RMK A01 T00591019  RH  057%=      5-min Rain = 0
KWE1 210410Z 15012KT 06/M02 A3005 RMK A01 T00591019  RH  057%=      5-min Rain = 0
KWE1 210411Z 15013KT 06/M02 A3005 RMK A01 T00591019  RH  058%=      5-min Rain = 0
KWE1 210412Z 15013KT 06/M02 A3005 RMK A01 T00581019  RH  057%=      5-min Rain = 0
KWE1 210413Z 15012KT 06/M02 A3005 RMK A01 T00581019  RH  057%=      5-min Rain = 0
KWE1 210414Z 15013KT 06/M02 A3005 RMK A01 T00581019  RH  057%=      5-min Rain = 0
KWE1 210415Z 15012KT 06/M02 A3005 RMK A01 T00581019  RH  057%=      5-min Rain = 0
KWE1 210416Z 15014KT 06/M02 A3005 RMK A01 T00581019  RH  058%=      5-min Rain = 0
KWE1 210417Z 15012KT 06/M02 A3005 RMK A01 T00581020  RH  057%=      5-min Rain = 0
KWE1 210418Z 15012G17KT 06/M02 A3005 RMK A01 T00581020  RH  057%=      5-min Rain = 0
KWE1 210419Z 15012KT 06/M02 A3005 RMK A01 T00581020  RH  057%=      5-min Rain = 0
KWE1 210420Z 15012KT 06/M02 A3005 RMK A01 T00581019  RH  057%=      5-min Rain = 0
KWE1 210421Z 15014KT 06/M02 A3005 RMK A01 T00581020  RH  057%=      5-min Rain = 0
KWE1 210422Z 15013KT 06/M02 A3005 RMK A01 T00581020  RH  057%=      5-min Rain = 0
KWE1 210423Z 15014KT 06/M02 A3005 RMK A01 T00581021  RH  057%=      5-min Rain = 0
KWE1 210424Z 15013KT 06/M02 A3005 RMK A01 T00591021  RH  057%=      5-min Rain = 0
KWE1 210425Z 15014KT 06/M02 A3005 RMK A01 T00591020  RH  057%=      5-min Rain = 0
KWE1 210426Z 15013KT 06/M02 A3005 RMK A01 T00591020  RH  057%=      5-min Rain = 0
KWE1 210427Z 15014KT 06/M02 A3005 RMK A01 T00591020  RH  057%=      5-min Rain = 0
KWE1 210428Z 15014KT 06/M02 A3005 RMK A01 T00591021  RH  057%=      5-min Rain = 0
KWE1 210429Z 15013KT 06/M02 A3005 RMK A01 T00591020  RH  057%=      5-min Rain = 0
KWE1 210430Z 15013KT 06/M02 A3005 RMK A01 T00591020  RH  057%=      5-min Rain = 0
KWE1 210431Z 15015KT 06/M02 A3005 RMK A01 T00581020  RH  057%=      5-min Rain = 0
KWE1 210432Z 15014KT 06/M02 A3005 RMK A01 T00591021  RH  057%=      5-min Rain = 0
KWE1 210433Z 15014KT 06/M02 A3005 RMK A01 T00591021  RH  056%=      5-min Rain = 0
KWE1 210434Z 15013KT 06/M02 A3005 RMK A01 T00591021  RH  056%=      5-min Rain = 0
KWE1 210435Z 16013KT 06/M02 A3005 RMK A01 T00591021  RH  056%=      5-min Rain = 0
KWE1 210436Z 16014KT 06/M02 A3005 RMK A01 T00591021  RH  056%=      5-min Rain = 0
KWE1 210437Z 15014KT 06/M02 A3005 RMK A01 T00591021  RH  056%=      5-min Rain = 0
KWE1 210438Z 15014KT 06/M02 A3005 RMK A01 T00591021  RH  057%=      5-min Rain = 0
KWE1 210439Z 15014KT 06/M02 A3005 RMK A01 T00591021  RH  057%=      5-min Rain = 0
KWE1 210440Z 15014KT 06/M02 A3005 RMK A01 T00591020  RH  057%=      5-min Rain = 0
KWE1 210441Z 16013KT 06/M02 A3005 RMK A01 T00591021  RH  057%=      5-min Rain = 0
KWE1 210442Z 15014KT 06/M02 A3005 RMK A01 T00581021  RH  057%=      5-min Rain = 0
KWE1 210443Z 15014KT 06/M02 A3005 RMK A01 T00581021  RH  057%=      5-min Rain = 0
KWE1 210444Z 15015KT 06/M02 A3005 RMK A01 T00581021  RH  057%=      5-min Rain = 0
KWE1 210445Z 15014KT 06/M02 A3005 RMK A01 T00581021  RH  057%=      5-min Rain = 0
KWE1 210446Z 15015KT 06/M02 A3005 RMK A01 T00591021  RH  057%=      5-min Rain = 0
KWE1 210447Z 16014KT 06/M02 A3005 RMK A01 T00581021  RH  057%=      5-min Rain = 0
KWE1 210448Z 15013KT 06/M02 A3005 RMK A01 T00581021  RH  057%=      5-min Rain = 0
KWE1 210449Z 16013KT 06/M02 A3005 RMK A01 T00581020  RH  057%=      5-min Rain = 0
KWE1 210450Z 15013KT 06/M02 A3005 RMK A01 T00581021  RH  057%=      5-min Rain = 0
KWE1 210451Z 15011KT 06/M02 A3005 RMK A01 T00581020  RH  057%=      5-min Rain = 0
KWE1 210452Z 15013KT 06/M02 A3005 RMK A01 T00581020  RH  057%=      5-min Rain = 0
KWE1 210453Z 16014KT 06/M02 A3005 RMK A01 T00581020  RH  057%=      5-min Rain = 0
KWE1 210454Z 15013KT 06/M02 A3005 RMK A01 T00571021  RH  057%=      5-min Rain = 0
KWE1 210455Z 15013KT 06/M02 A3005 RMK A01 T00581020  RH  057%=      5-min Rain = 0
KWE1 210456Z 15013KT 06/M02 A3005 RMK A01 T00581020  RH  057%=      5-min Rain = 0
KWE1 210457Z 16014KT 06/M02 A3005 RMK A01 T00581020  RH  057%=      5-min Rain = 0
KWE1 210458Z 15014KT 06/M02 A3005 RMK A01 T00581020  RH  057%=      5-min Rain = 0
KWE1 210459Z 16014KT 06/M02 A3005 RMK A01 T00581020  RH  057%=      5-min Rain = 0
KWE1 210500Z 15014KT 06/M02 A3005 RMK A01 T00581020  RH  057%=      5-min Rain = 0
KWE1 210501Z 16012KT 06/M02 A3005 RMK A01 T00581020  RH  058%=      5-min Rain = 0
KWE1 210502Z 15013KT 06/M02 A3005 RMK A01 T00571020  RH  058%=      5-min Rain = 0
KWE1 210503Z 16012KT 06/M02 A3005 RMK A01 T00561020  RH  058%=      5-min Rain = 0
KWE1 210504Z 16013KT 06/M02 A3005 RMK A01 T00561020  RH  058%=      5-min Rain = 0
KWE1 210505Z 16013KT 06/M02 A3005 RMK A01 T00561019  RH  058%=      5-min Rain = 0
KWE1 210506Z 15011KT 06/M02 A3005 RMK A01 T00561020  RH  058%=      5-min Rain = 0
KWE1 210507Z 16012KT 06/M02 A3005 RMK A01 T00561019  RH  058%=      5-min Rain = 0
KWE1 210508Z 15012KT 06/M02 A3005 RMK A01 T00561019  RH  059%=      5-min Rain = 0
KWE1 210509Z 16013KT 06/M02 A3005 RMK A01 T00561019  RH  058%=      5-min Rain = 0
KWE1 210510Z 15013KT 06/M02 A3005 RMK A01 T00561019  RH  058%=      5-min Rain = 0
KWE1 210511Z 15013KT 06/M02 A3005 RMK A01 T00561019  RH  058%=      5-min Rain = 0
KWE1 210512Z 15014KT 06/M02 A3004 RMK A01 T00561020  RH  058%=      5-min Rain = 0
KWE1 210513Z 15013KT 06/M02 A3005 RMK A01 T00571019  RH  058%=      5-min Rain = 0
KWE1 210514Z 15013KT 06/M02 A3005 RMK A01 T00571019  RH  058%=      5-min Rain = 0
KWE1 210515Z 15014KT 06/M02 A3005 RMK A01 T00571019  RH  058%=      5-min Rain = 0
KWE1 210516Z 15012KT 06/M02 A3005 RMK A01 T00571019  RH  058%=      5-min Rain = 0
KWE1 210517Z 15012KT 06/M02 A3005 RMK A01 T00571019  RH  058%=      5-min Rain = 0
KWE1 210518Z 15012KT 06/M02 A3005 RMK A01 T00571019  RH  058%=      5-min Rain = 0
KWE1 210519Z 15012KT 06/M02 A3005 RMK A01 T00571019  RH  058%=      5-min Rain = 0
KWE1 210520Z 15012KT 06/M02 A3005 RMK A01 T00561019  RH  059%=      5-min Rain = 0
KWE1 210521Z 15012KT 06/M02 A3005 RMK A01 T00561019  RH  059%=      5-min Rain = 0
KWE1 210522Z 15012KT 06/M02 A3005 RMK A01 T00561018  RH  059%=      5-min Rain = 0
KWE1 210523Z 15014KT 06/M02 A3005 RMK A01 T00561018  RH  059%=      5-min Rain = 0
KWE1 210524Z 15012KT 06/M02 A3005 RMK A01 T00571019  RH  058%=      5-min Rain = 0
KWE1 210525Z 15011KT 06/M02 A3005 RMK A01 T00571018  RH  059%=      5-min Rain = 0
KWE1 210526Z 15012KT 06/M02 A3005 RMK A01 T00561018  RH  059%=      5-min Rain = 0
KWE1 210527Z 15013KT 06/M02 A3005 RMK A01 T00561018  RH  059%=      5-min Rain = 0
KWE1 210528Z 15012KT 06/M02 A3005 RMK A01 T00571018  RH  059%=      5-min Rain = 0
KWE1 210529Z 15012KT 06/M02 A3005 RMK A01 T00571018  RH  058%=      5-min Rain = 0
KWE1 210530Z 15012KT 06/M02 A3005 RMK A01 T00571018  RH  058%=      5-min Rain = 0
KWE1 210531Z 15013KT 06/M02 A3005 RMK A01 T00571018  RH  059%=      5-min Rain = 0
KWE1 210532Z 16013KT 06/M02 A3005 RMK A01 T00571018  RH  058%=      5-min Rain = 0
KWE1 210533Z 15012KT 06/M02 A3005 RMK A01 T00571018  RH  058%=      5-min Rain = 0
KWE1 210534Z 15011KT 06/M02 A3005 RMK A01 T00571018  RH  058%=      5-min Rain = 0
KWE1 210535Z 15012KT 06/M02 A3005 RMK A01 T00571018  RH  059%=      5-min Rain = 0
KWE1 210536Z 16012KT 06/M02 A3005 RMK A01 T00571018  RH  059%=      5-min Rain = 0
KWE1 210537Z 15011KT 06/M02 A3005 RMK A01 T00571018  RH  059%=      5-min Rain = 0
KWE1 210538Z 16011KT 06/M02 A3005 RMK A01 T00571018  RH  059%=      5-min Rain = 0
KWE1 210539Z 15011KT 06/M02 A3005 RMK A01 T00571017  RH  059%=      5-min Rain = 0
KWE1 210540Z 15012KT 06/M02 A3005 RMK A01 T00571017  RH  059%=      5-min Rain = 0
KWE1 210541Z 15012KT 06/M02 A3005 RMK A01 T00571017  RH  059%=      5-min Rain = 0
KWE1 210542Z 15011KT 06/M02 A3005 RMK A01 T00571017  RH  059%=      5-min Rain = 0
KWE1 210543Z 16011KT 06/M02 A3005 RMK A01 T00561017  RH  059%=      5-min Rain = 0
KWE1 210544Z 15010KT 06/M02 A3005 RMK A01 T00551017  RH  060%=      5-min Rain = 0
KWE1 210545Z 15011KT 06/M02 A3005 RMK A01 T00551017  RH  060%=      5-min Rain = 0
KWE1 210546Z 15011KT 06/M02 A3005 RMK A01 T00551016  RH  060%=      5-min Rain = 0
KWE1 210547Z 15013KT 06/M02 A3005 RMK A01 T00551017  RH  060%=      5-min Rain = 0
KWE1 210548Z 15012KT 06/M02 A3005 RMK A01 T00551017  RH  060%=      5-min Rain = 0
KWE1 210549Z 15011KT 06/M02 A3005 RMK A01 T00551017  RH  060%=      5-min Rain = 0
KWE1 210550Z 16011KT 06/M02 A3005 RMK A01 T00551017  RH  060%=      5-min Rain = 0
KWE1 210551Z 15012KT 06/M02 A3005 RMK A01 T00551017  RH  060%=      5-min Rain = 0
KWE1 210552Z 15011KT 06/M02 A3005 RMK A01 T00551017  RH  060%=      5-min Rain = 0
KWE1 210553Z 15012KT 06/M02 A3005 RMK A01 T00561016  RH  060%=      5-min Rain = 0
KWE1 210554Z 15012KT 06/M02 A3005 RMK A01 T00561016  RH  060%=      5-min Rain = 0
KWE1 210555Z 15012KT 06/M02 A3005 RMK A01 T00561016  RH  060%=      5-min Rain = 0
KWE1 210556Z 15011KT 06/M02 A3005 RMK A01 T00561016  RH  060%=      5-min Rain = 0
KWE1 210557Z 15010KT 06/M02 A3005 RMK A01 T00561016  RH  060%=      5-min Rain = 0
KWE1 210558Z 15011KT 06/M02 A3005 RMK A01 T00561016  RH  060%=      5-min Rain = 0
KWE1 210559Z 15012KT 06/M02 A3005 RMK A01 T00561016  RH  060%=      5-min Rain = 0

Page generated in 0.1439 seconds.